[{"header": {"dx": 0.06612293990616946, "dy": 0.0552356325346848, "nx": 98, "ny": 59, "la1": 35.046912555036876, "la2": 31.78801023549047, "lo1": -121.43107172385933, "lo2": -114.95102361305473, "refTime": "2026041514", "parameterCategory": 1, "parameterNumber": 2}, "data": [7.11, 6.87, 7.16, 7.23, 6.94, 6.99, 7.06, 5.92, 5.31, 3.36, 0.0, -3.04, -4.38, -7.19, -8.53, -9.3, -10.09, -10.0, -11.03, -11.87, -12.83, -12.96, -10.4, -8.73, -6.98, -6.97, -6.7, -3.96, -0.0, -0.0, 5.6, 9.17, 10.41, 10.0, 9.97, 9.83, 9.39, 9.39, 9.39, -0.0, -0.0, 5.0, 11.62, 10.04, 10.12, 12.09, 12.87, 10.98, 10.3, 10.73, 11.9, 10.43, 6.8, 8.68, 8.05, 9.77, 11.06, 13.02, 12.65, 13.56, 13.99, 14.31, 14.75, 10.12, 9.8, 12.79, 13.15, 13.88, 14.56, 15.61, 15.91, 15.39, 15.55, 15.65, 15.65, 15.55, 14.51, 14.3, 14.75, -13.19, -11.9, -9.48, -10.79, -11.87, -12.07, -11.62, 12.07, 11.18, 11.18, 10.6, 10.41, 9.48, 8.05, 9.44, 10.43, 11.44, 11.6, 10.79, 6.89, 7.17, 6.95, 6.9, 6.6, 6.6, 6.4, 6.85, 6.4, 4.38, 4.1, 0.0, 0.0, 0.0, 0.0, -5.4, -8.58, -10.35, -10.8, -10.4, -12.89, -12.83, -12.96, -11.6, -7.59, -6.71, -5.2, -6.7, -5.4, -5.6, -0.0, 6.2, 3.96, 5.46, 6.7, 8.67, 7.6, 8.48, 6.64, 10.28, 8.85, 13.41, 11.6, 8.53, 8.78, 10.27, 9.97, 9.8, 10.25, 11.8, 14.75, 4.81, 8.43, 9.49, 8.43, 9.77, 11.06, 11.68, 13.2, 13.19, 13.56, 13.99, 11.9, 9.8, 9.8, 11.88, 13.15, 13.39, 14.42, 15.53, 16.05, 15.83, 15.99, 15.2, 15.2, 14.6, 14.69, 14.3, 14.75, -13.19, -11.9, -9.48, -10.79, -11.87, -12.07, -11.62, 12.07, 11.18, 11.18, 10.6, 10.41, 9.48, 8.05, 9.44, 10.43, 11.44, 11.6, 10.79, 6.89, 6.89, 6.66, 6.95, 7.01, 6.73, 6.78, 6.4, 6.64, 4.98, 4.55, 3.68, 4.1, 3.82, 6.45, 6.45, 0.0, -9.3, -10.48, -11.6, -10.88, -11.5, -12.04, -13.23, -13.44, -7.59, -4.8, -4.8, -3.53, -8.22, -14.75, -15.2, -10.12, -0.0, 6.01, 8.48, 8.49, 8.94, 8.18, 10.4, 8.53, 7.02, 7.82, 7.38, 8.31, 8.31, 7.78, 8.91, 10.43, 15.2, 8.43, 8.43, 9.12, 9.49, 8.18, 9.49, 11.68, 12.37, 13.19, 13.81, 13.81, 13.15, 11.88, 10.82, 9.8, 11.9, 12.81, 13.99, 14.3, 14.94, 15.12, 15.53, 15.55, 14.9, 12.27, 14.47, 15.2, 15.2, 14.3, -14.75, -14.3, -9.48, -12.96, -10.8, -11.03, -11.62, 11.18, 11.18, 11.18, 11.2, 11.44, 10.43, 8.85, 8.57, 9.16, 9.48, 10.79, 10.41, 6.89, 6.89, 7.17, 6.95, 6.69, 7.01, 7.1, 6.57, 6.2, 5.55, 5.08, 4.08, 3.04, 5.2, 5.2, 6.45, 9.67, 0.0, -9.97, -11.45, -10.84, -11.02, -10.75, -10.5, -11.78, -12.96, -7.27, -5.46, -3.11, -5.0, -12.07, -11.53, -13.99, -13.99, 12.52, 10.73, 10.28, 10.41, 8.03, 7.44, 8.24, 7.19, 7.38, 6.94, 7.82, 9.17, 11.28, 13.28, 14.75, 10.43, 8.85, 10.75, 10.43, 9.22, 9.22, 10.43, 12.27, 12.81, 13.19, 13.39, 14.31, 13.15, 11.9, 8.87, 9.8, 10.43, 12.73, 12.52, 13.76, 15.09, 14.52, 14.84, 15.34, 14.75, 4.52, 6.2, 13.19, 15.02, 14.75, -13.15, -12.72, -13.41, -9.17, -9.67, -10.84, -11.03, 12.07, 11.62, 9.58, 11.75, 12.0, 11.1, 8.31, 8.73, 8.1, 11.16, 12.58, 11.62, 6.64, 6.89, 7.17, 6.66, 6.95, 6.69, 6.52, 6.88, 6.36, 5.8, 4.99, 4.72, 4.48, 2.82, 2.19, 2.28, 5.2, 2.82, -9.3, -11.56, -12.86, -12.52, -11.62, -11.51, -10.66, -12.07, -12.52, -10.8, -0.0, -0.0, 10.73, -6.2, -6.97, -6.44, 0.0, 7.93, 8.43, 11.09, 7.74, 7.26, 7.62, 8.61, 10.18, 13.32, 13.75, 13.86, 14.3, 14.19, 14.31, 13.97, 11.52, 11.17, 10.12, 10.43, 10.43, 12.27, 12.27, 12.81, 13.19, 13.57, 13.88, 12.39, 9.8, 8.57, 9.6, 12.56, 12.9, 12.56, 12.96, 15.88, 17.27, 17.09, 17.52, 16.76, 14.84, 2.54, 8.87, 13.28, 13.67, -9.48, -10.79, -10.79, -10.04, -10.0, -9.58, -6.45, 3.82, 9.3, 10.18, 12.0, 11.44, 9.84, 9.5, 9.17, 9.17, 12.72, 12.79, 12.39, 6.64, 6.89, 6.89, 6.66, 6.95, 7.03, 6.79, 6.31, 6.0, 6.15, 5.4, 4.62, 4.48, 5.2, 4.15, 1.84, 1.84, 2.28, -5.0, -10.62, -10.73, -11.21, -13.28, -13.41, -12.52, -11.84, -11.71, -10.8, -5.8, 0.0, 9.83, 10.28, 0.0, -2.02, 0.0, 1.72, 3.68, 7.28, 7.59, 5.75, 5.08, 7.36, 13.44, 14.19, 14.25, 14.7, 14.75, 14.3, 14.3, 14.16, 12.87, 12.87, 11.09, 11.44, 12.65, 13.19, 13.56, 13.19, 13.81, 14.03, 13.44, 10.47, 8.18, 8.83, 10.47, 12.9, 13.24, 12.71, 13.05, 17.99, 20.98, 19.41, 17.22, 17.64, 17.78, 16.05, 8.38, 9.17, 12.3, -9.17, -9.66, -7.26, -7.9, -8.22, -6.45, -1.44, 1.5, 7.11, 9.71, 10.12, 8.44, 9.48, 7.44, -12.96, -12.96, 12.72, 12.46, 12.14, 6.43, 6.68, 6.68, 6.94, 6.45, 6.73, 6.27, 6.57, 6.1, 5.6, 5.72, 4.3, 5.98, 5.0, 7.24, 3.98, 3.07, 3.19, 0.0, -9.2, -9.38, -9.67, -10.21, -11.09, -11.62, -9.3, -6.97, -4.48, -2.45, -3.39, 0.0, 9.83, 9.83, 6.64, 1.84, 0.0, 1.55, 6.9, 9.3, 5.29, 2.45, 0.0, 5.31, 10.75, 14.38, 14.56, 15.83, 15.14, 13.86, 13.86, 14.3, 13.44, 13.28, 12.65, 13.28, 13.15, 13.57, 13.57, 14.19, 13.79, 13.01, 11.5, 10.75, 10.05, 11.7, 12.71, 15.19, 14.79, 15.43, 17.88, 20.56, 19.67, 16.99, 16.46, 16.99, 16.99, 14.9, 12.72, 13.41, 11.99, -4.32, -2.82, -3.82, -3.82, -2.16, 0.0, 1.15, 4.11, 6.4, 7.79, 7.44, 5.28, -12.72, -13.41, -6.0, 10.37, 11.2, 11.3, 6.43, 6.68, 6.68, 6.68, 6.45, 6.73, 6.8, 6.57, 6.1, 5.89, 5.2, 4.01, 4.32, 5.2, 9.66, 8.58, 6.98, 7.44, 4.8, 4.8, -10.73, -9.58, -10.48, -10.04, -7.9, -4.6, -3.82, -3.39, -5.98, -6.71, -5.0, 0.0, 5.0, 7.59, 6.98, 2.71, 0.0, 2.19, 10.41, 8.22, 4.15, 1.71, 1.38, 3.36, 5.81, 10.05, 13.58, 15.99, 14.75, 14.3, 12.52, 13.41, 13.44, 12.87, 13.15, 13.15, 13.32, 13.32, 13.31, 12.88, 11.98, 11.99, 10.75, 11.06, 11.38, 13.59, 16.48, 15.65, 14.55, 15.04, 17.74, 18.22, 15.78, 15.09, 14.56, 14.66, 14.3, 12.45, 12.79, 14.3, 8.66, -1.25, -1.09, -1.04, 0.0, 0.89, 1.03, 1.48, 3.56, 7.19, 3.56, -7.78, -13.31, -13.44, 0.0, 8.85, 10.24, 10.4, 6.68, 6.68, 6.68, 6.68, 6.45, 6.25, 6.51, 6.57, 6.14, 5.68, 4.92, 4.4, 3.96, 4.08, 6.2, 6.98, 7.9, 7.15, 7.9, 10.41, 10.0, -11.62, -10.79, -10.35, -8.53, -5.6, -3.49, -6.14, -7.27, -6.44, -2.02, 0.0, 0.0, 4.15, 6.98, 4.6, 2.1, 0.0, 8.22, 7.9, 4.65, 3.44, 2.06, 0.0, 0.0, 0.0, 7.2, 15.19, 15.47, 15.05, 14.47, 12.96, 13.01, 12.87, 13.15, 13.32, 13.32, 12.86, 12.44, 11.55, 12.42, 14.75, 13.59, -0.0, 7.2, 16.12, 17.43, 16.09, 14.55, 13.7, 15.27, 16.15, 15.96, 14.84, 14.23, 14.19, 13.86, 12.83, 13.41, 15.2, 14.11, 0.0, 0.0, 0.0, 1.13, 2.24, 1.29, 0.0, 0.0, -3.14, -10.37, -12.46, -12.3, -9.48, 0.0, 8.85, 9.46, 9.82, 6.46, 6.46, 6.46, 6.46, 6.72, 6.25, 6.51, 6.3, 6.07, 6.14, 5.6, 5.89, 5.0, 3.33, 3.34, 3.53, 4.54, 5.0, 4.15, 3.39, 0.0, 10.73, -11.62, -9.67, -7.9, -6.71, -5.9, -6.95, -8.38, -3.82, 0.0, 0.0, 0.0, 0.0, 2.82, 5.2, 4.8, 2.83, 11.62, 12.52, 4.48, 2.06, 0.0, -11.62, -8.22, 0.0, 2.63, 8.58, 13.42, 14.84, 14.75, 14.31, 14.03, 13.67, 13.67, 14.16, 13.75, 12.07, 10.73, 12.52, 14.75, 16.31, 16.54, 7.2, 7.2, 16.54, 17.74, 15.99, 13.86, 13.57, 13.99, 14.99, 15.38, 15.61, 15.39, 13.77, 12.89, 11.28, 11.84, 14.26, 15.2, 15.36, 3.24, 3.07, 7.13, 9.48, 11.09, 11.53, 9.48, -12.96, -12.71, -10.73, -7.82, -4.81, 0.0, 7.82, 8.85, 9.62, 6.46, 6.46, 6.46, 6.46, 6.46, 6.72, 6.25, 6.3, 6.57, 6.07, 6.36, 6.36, 6.87, 5.68, 4.65, 2.71, 2.93, 2.87, 1.83, 0.0, 0.0, -10.43, -13.86, -11.2, -9.17, -7.59, -7.27, -7.87, -5.9, -1.93, 0.0, 0.0, 0.0, 0.0, 1.93, 5.2, 6.97, 8.22, 11.62, 12.52, 0.0, -8.85, -11.62, -5.4, -8.22, -5.2, 0.0, 3.04, 7.19, 12.72, 14.75, 14.39, 14.39, 15.78, 15.78, 16.54, 16.54, 13.86, 9.76, 13.41, 17.43, 16.6, 11.7, 7.2, 7.2, 14.88, 17.67, 17.35, 15.2, 12.27, 12.74, 13.7, 15.27, 15.53, 14.9, 13.19, 11.03, 10.0, 12.5, 13.84, 14.28, 14.84, 14.39, 12.01, 14.39, 14.55, 15.2, 15.2, 14.3, 13.41, -8.85, -6.94, -4.65, -2.45, 2.37, 6.67, 8.3, 7.19, 6.46, 6.46, 6.46, 6.46, 6.46, 6.72, 6.72, 6.99, 6.51, 6.8, 6.8, 6.8, 7.6, 7.4, 6.76, 5.2, 3.91, 2.93, 1.71, 0.0, -3.47, -14.75, -12.79, -11.06, -13.41, -11.87, -8.53, -7.07, -5.95, 0.0, 0.0, 0.0, 0.0, 0.0, 3.25, 4.8, 6.44, 0.0, -10.4, -11.71, -12.52, -12.07, -11.62, -0.0, -7.59, -10.28, -10.8, -8.85, 12.96, 13.86, 14.3, 14.79, 15.62, 16.74, 18.65, 18.65, 19.73, 18.78, 12.07, 13.86, 14.88, 8.2, 5.51, -0.0, -0.0, 13.59, 18.6, 21.35, 20.12, 16.76, 13.56, 12.66, 14.13, 14.75, 12.66, 10.56, 11.13, 12.9, 13.2, 13.02, 13.8, 15.07, 15.19, 14.88, 18.41, 18.96, 17.33, 15.12, 14.75, 13.86, 12.27, 6.45, 0.0, 0.0, 4.65, 6.67, 7.78, 5.8, 6.46, 6.46, 6.46, 6.46, 6.46, 6.46, 6.72, 6.72, 6.99, 6.99, 6.51, 7.29, 7.29, 8.05, 7.82, 8.37, 7.19, 4.99, 3.25, 1.53, 0.0, -13.19, -12.65, -12.27, -11.9, -13.15, -9.48, -5.8, -8.53, -3.11, -4.15, -6.2, -10.73, -10.28, -10.28, -10.28, -10.28, -11.18, -10.96, -11.02, -11.4, -11.28, -10.0, 9.83, -7.27, -10.73, -11.62, -10.8, -9.17, 0.0, 0.0, 0.0, 14.3, 15.2, 16.99, 18.33, 17.99, 20.39, 16.09, -0.0, -0.0, -0.0, -5.51, -16.09, -18.33, 14.22, 18.6, 22.39, 20.46, 25.03, 21.2, 20.38, 14.11, 11.51, 9.6, 11.21, 13.7, 14.07, 13.58, 13.38, 12.87, 13.46, 12.87, 12.56, 15.77, 18.05, 18.66, 16.96, 15.61, 14.19, 13.75, 11.03, 10.0, 9.67, 8.85, 10.37, 10.79, 6.0, 6.46, 6.46, 6.46, 6.46, 6.46, 6.46, 6.72, 6.72, 6.72, 6.99, 6.99, 6.99, 7.73, 8.15, 8.46, 8.82, 9.06, 8.38, 7.44, 6.2, 4.52, -14.3, -14.75, -14.75, -13.88, -12.79, -9.8, -9.8, -10.47, -12.52, -10.65, -10.73, -11.18, -9.83, -9.83, -9.83, -9.83, -10.28, -10.28, -10.62, -10.18, -9.2, -7.59, 10.28, -0.0, 10.28, -9.39, -7.9, 0.0, 0.0, 0.0, 0.0, 0.0, 12.07, 12.52, 12.52, 15.65, 19.22, 15.17, -6.2, -9.8, -7.0, -7.4, -16.99, -11.7, -7.4, 17.43, -13.28, -9.6, -5.53, -7.49, -0.0, 8.2, 10.28, 11.02, 13.99, 15.11, 14.78, 14.13, 14.4, 14.13, 11.7, 11.69, 12.0, 10.02, 12.71, 15.99, 16.85, 17.2, 16.54, 14.3, 11.09, 10.6, 11.87, 11.2, 12.58, 12.96, 12.96, 6.46, 6.46, 6.46, 6.46, 6.46, 6.46, 6.46, 7.4, 7.16, 7.16, 7.44, 7.44, 7.44, 8.15, 8.15, 8.49, 9.1, 9.48, 9.48, 9.48, 9.48, 6.2, -10.12, -14.3, -14.3, -13.44, -12.39, -12.74, -12.56, -13.09, -12.52, -10.2, -11.18, -10.28, -10.28, -10.28, -10.73, -9.83, -11.18, -9.83, -10.28, -10.73, -9.83, -9.83, -0.0, -0.0, 9.83, 10.28, 0.0, 0.0, 0.0, 0.0, 0.0, 9.39, 9.83, 10.73, 11.62, 9.8, 18.33, 12.33, -9.17, -12.96, -13.86, -10.12, -6.6, -4.81, -7.4, -16.99, -0.0, -6.36, -6.5, -3.53, -0.0, 5.6, 13.41, 16.22, 17.1, 16.96, 14.57, 15.19, 15.59, 14.57, 13.27, 12.25, 10.79, 8.83, 11.68, 14.94, 16.09, 16.54, 16.99, 13.09, 10.68, 11.2, 13.23, 12.96, 11.6, 11.6, 6.46, 6.46, 6.46, 6.46, 6.46, 6.46, 7.13, 6.9, 7.16, 7.16, 7.16, 7.44, 7.85, 8.42, 8.15, 8.46, 8.82, 8.79, 9.48, 9.97, 10.59, 9.48, 6.2, -10.43, -14.75, -14.75, -13.44, -13.15, -13.01, -13.31, -13.41, -12.07, -10.28, -10.73, -10.28, -8.67, -9.97, -9.2, -9.6, -9.55, -9.11, -9.39, -10.28, -8.8, -6.95, -6.64, -6.95, -7.27, 10.28, 10.28, 11.18, 11.62, 11.62, 10.73, 9.39, 9.83, 10.28, 11.62, 14.75, 11.06, -0.0, 11.62, 11.62, 12.07, 0.0, 0.0, 0.0, 15.2, -0.0, -4.77, -9.6, -3.68, -0.0, 8.4, 15.2, 18.33, 13.59, 13.28, 18.33, 18.33, 18.33, 18.33, 16.66, 14.64, 11.61, 10.96, 9.48, 12.3, 12.96, 13.86, 15.55, 11.92, 12.04, 13.23, 12.14, 10.8, 8.85, 8.85, 6.46, 6.46, 6.46, 6.46, 6.46, 6.9, 7.13, 6.9, 7.16, 7.16, 7.57, 7.57, 8.11, 8.51, 8.53, 8.46, 8.49, 8.82, 8.79, 9.89, 10.38, 10.99, 11.16, 11.53, 14.3, 14.3, 14.75, -14.75, -14.75, -14.3, -13.41, -12.96, -11.18, -11.18, -7.44, -8.4, -9.33, -9.96, -9.97, -9.54, -9.83, -8.94, -10.28, -8.0, -8.8, -6.95, -7.27, -7.27, -7.27, -7.27, -7.27, -7.59, -11.18, -10.73, 10.73, 10.28, 10.28, 10.73, 8.53, -0.0, -0.0, -0.0, -0.0, -0.0, -0.0, -0.0, 11.62, 11.62, -6.2, -12.33, -15.49, -18.33, 17.88, 0.0, -17.88, -17.81, -15.99, -13.91, -13.91, -13.28, -0.0, 17.43, 16.99, 15.08, 13.88, 11.46, 12.07, 12.96, 13.41, 13.53, 13.86, 12.33, 11.2, 11.92, 11.6, 9.42, 6.94, 6.94, 6.46, 6.46, 6.46, 6.46, 6.9, 6.9, 6.9, 7.13, 6.9, 7.57, 7.57, 7.83, 8.22, 8.51, 8.53, 8.17, 8.46, 8.78, 8.82, 9.53, 9.96, 11.16, 11.5, 12.56, 13.41, 14.3, 14.75, 10.75, -10.75, -15.2, -14.75, -13.41, -12.52, -10.38, -8.24, -8.82, -9.33, -10.28, -9.83, -9.83, -9.83, -9.83, -9.83, -10.28, -10.28, -10.28, -10.73, -10.28, -7.27, -7.27, -7.27, -7.27, -7.27, -10.28, 10.28, 10.28, 10.28, 7.59, 7.9, 7.9, -0.0, -0.0, -7.59, -4.8, -5.95, -5.46, -0.0, 10.28, -12.07, -15.65, -17.99, -10.91, -6.22, -11.9, -16.91, -16.99, -17.53, -18.21, -18.66, -18.78, 17.43, 15.99, 15.99, 11.99, 10.87, 10.41, 10.55, 12.96, 12.33, 12.13, 13.07, 12.46, 9.97, 9.82, 10.99, 10.12, 7.51, 7.51, 6.46, 6.46, 6.46, 6.46, 6.9, 6.9, 6.9, 7.13, 7.55, 7.83, 7.57, 8.22, 8.22, 8.51, 8.15, 8.31, 7.89, 8.17, 8.53, 9.21, 11.28, 12.41, 11.53, 11.99, 11.2, 13.15, 11.6, 9.8, 6.0, -6.2, -13.15, -12.96, -12.52, -11.21, -9.3, -9.6, -10.12, -10.73, -11.02, -10.41, -9.54, -9.97, -11.18, -11.18, -11.62, -10.73, -10.73, -10.28, -10.28, -7.27, -7.27, -7.27, -7.27, -7.27, -0.0, -0.0, 10.28, 11.18, 12.07, 11.62, 11.62, -0.0, -5.0, -5.46, -6.14, -5.63, -6.64, 10.28, 7.59, 0.0, 0.0, 0.0, 12.89, 7.77, -12.01, -15.65, -16.09, -16.22, -16.48, -12.33, 4.12, 10.46, 11.38, 7.51, 8.83, 8.23, 8.38, 9.17, 10.59, 9.48, 10.99, 11.64, 10.24, 8.22, 9.02, 10.99, 8.66, 8.66, 6.46, 6.46, 6.46, 6.9, 6.9, 6.9, 6.9, 7.13, 7.55, 7.55, 8.22, 8.22, 8.22, 8.51, 8.51, 8.17, 7.89, 7.24, 7.18, 8.24, 10.94, 11.95, 11.6, 9.8, 8.3, 9.17, 7.78, 6.0, 2.72, 0.0, -5.6, -11.87, -12.07, -11.71, -11.03, -9.86, -10.47, -10.73, -10.68, -10.22, -10.65, -10.73, -11.18, -11.18, -11.18, -11.62, -10.28, -10.28, -7.27, -6.95, -6.95, -7.27, -7.59, -7.9, -0.0, -0.0, 7.9, 10.73, 10.73, 11.62, 11.18, -7.59, -7.59, -5.95, -7.27, -7.27, -9.2, 11.18, 12.07, 13.41, 16.54, 19.67, 24.14, 26.28, 19.31, 13.76, 7.2, -13.39, -11.7, 0.0, 3.07, 7.4, 7.54, 6.0, 6.88, 8.38, 9.48, 12.96, 9.84, 10.01, 8.38, 9.48, 9.76, 7.78, 6.73, 9.12, 7.82, 7.82, 6.46, 6.46, 6.46, 6.9, 6.9, 6.9, 7.13, 7.13, 7.55, 7.55, 8.22, 8.22, 8.22, 8.22, 8.51, 8.53, 8.17, 7.51, 6.4, 6.96, 9.27, 10.75, 10.61, 10.27, 8.68, 7.36, 6.88, 2.13, 0.0, 0.0, -3.68, -5.2, -10.4, -11.62, -11.28, -10.96, -11.02, -10.73, -10.73, -11.18, -11.18, -11.18, -11.18, -12.07, -11.62, -12.07, -9.83, -10.28, -7.27, -7.27, -6.95, -7.27, -7.59, -5.0, -0.0, -0.0, 5.0, 5.0, 11.62, 11.18, -7.9, -7.9, -8.93, -10.6, -9.75, -10.41, -10.18, -8.53, 7.19, 9.8, 12.52, 17.39, 23.01, 25.03, 18.26, 12.33, 8.0, -8.0, -13.76, -8.43, 0.0, 5.81, 9.22, 10.73, 12.39, 13.41, 6.0, 7.44, 13.23, 12.07, 9.62, 8.91, 10.12, 7.79, 4.87, 6.6, 6.6, 6.6, 6.46, 6.46, 6.46, 6.9, 6.9, 6.9, 7.13, 7.55, 7.55, 7.55, 8.22, 8.59, 8.59, 8.22, 8.51, 8.51, 8.53, 8.15, 8.42, 8.51, 9.22, 8.84, 8.95, 8.45, 8.58, 8.78, 7.1, 2.54, 0.0, -3.82, -3.82, -5.2, -8.22, -11.62, -11.62, -11.18, -11.62, -11.62, -11.18, -11.18, -11.18, -11.18, -11.18, -11.84, -10.96, -10.41, -10.73, -9.83, -10.28, -7.27, -7.27, -7.59, -7.59, -5.0, -0.0, -0.0, -0.0, -0.0, -0.0, -10.73, -9.2, -7.59, -9.3, -10.6, -10.6, -9.3, -10.4, -10.8, -4.1, 4.66, 9.39, 14.22, 14.22, 17.07, 4.88, 5.99, 10.19, 11.27, 0.0, -11.38, -3.79, 3.24, 7.2, 13.59, 14.3, 6.0, 9.48, 14.3, 14.18, 11.88, 10.43, 9.48, 10.69, 11.9, 6.4, 4.52, 7.59, 7.59, 6.46, 6.46, 6.46, 6.9, 6.9, 6.9, 7.13, 7.55, 7.55, 7.55, 8.2, 8.86, 8.86, 8.59, 8.22, 8.51, 8.81, 8.81, 9.09, 9.66, 9.66, 8.66, 8.01, 7.78, 8.49, 9.21, 8.05, 6.2, 0.0, -5.6, -5.4, -5.2, -8.22, -8.22, -11.62, -11.62, -11.62, -11.62, -11.62, -11.62, -11.62, -11.28, -11.28, -11.03, -9.67, -9.3, -9.6, -6.64, -6.64, -7.27, -7.27, -7.59, -7.59, -5.0, -0.0, -4.8, -3.53, -0.0, -0.0, 9.39, -9.39, -7.27, -8.22, -8.22, -6.2, -5.0, -5.2, -7.9, -8.22, -0.0, -0.0, -15.99, -0.0, 13.86, 0.0, 2.97, 6.94, 9.89, 12.01, 0.0, -6.2, -3.79, 0.0, 0.0, 0.0, 6.2, 7.69, 8.94, 10.01, 11.87, 10.66, 9.48, 10.12, 12.79, -0.0, 12.79, 7.93, 7.93, 6.46, 6.46, 6.46, 6.9, 6.9, 6.9, 7.13, 7.55, 7.55, 7.55, 8.2, 8.86, 8.86, 8.86, 8.59, 8.87, 9.16, 9.46, 9.46, 9.42, 9.76, 9.48, 8.85, 7.93, 8.21, 8.38, 8.83, 8.66, 4.24, 0.0, -5.6, -5.4, -8.22, -7.9, -11.18, -11.18, -11.18, -11.18, -11.62, -11.62, -11.62, -11.03, -11.03, -8.22, -8.22, -6.2, -8.85, -0.0, -0.0, -0.0, -0.0, -0.0, -7.59, -4.8, -4.6, -4.6, -3.25, -3.82, -0.0, 8.22, 8.94, 9.39, 11.18, -0.0, -5.0, -2.93, -0.0, -0.0, -0.0, 11.18, 11.18, -20.56, -0.0, -0.0, 16.54, 4.24, 6.9, 8.1, 11.8, 13.59, 0.0, -6.4, -5.48, -2.35, 0.0, 0.0, 3.58, 5.48, 7.82, 10.6, 10.36, 8.05, 13.86, 6.2, 14.3, 13.57, 11.53, 11.53, 6.46, 6.46, 6.46, 6.9, 6.9, 6.9, 7.55, 7.55, 7.55, 7.95, 8.2, 8.86, 8.86, 8.86, 8.86, 8.86, 9.16, 8.87, 9.17, 9.13, 9.46, 9.8, 9.48, 9.17, 8.67, 8.61, 9.48, 8.73, 9.48, 4.24, 0.0, 0.0, -8.85, -8.22, -11.18, -10.73, -11.18, -11.18, -11.18, -11.62, -11.62, -10.4, -10.0, -5.0, -5.0, -0.0, -0.0, -0.0, -0.0, -0.0, -0.0, -0.0, -0.0, -7.59, -4.6, -4.6, -7.27, -6.95, -8.22, 8.85, 11.18, 9.39, 6.95, -0.0, -2.82, -2.93, -0.0, -0.0, -0.0, -0.0, 9.48, 0.0, 15.49, 27.72, 12.39, 20.56, 14.88, 9.39, 10.12, 11.16, 9.8, 0.0, -4.98, -2.2, -1.83, 0.0, 1.47, 4.24, 5.99, 5.81, 15.19, 14.75, 12.79, 14.75, 13.41, 13.44, 13.15, 13.15, 6.46, 6.46, 6.46, 6.46, 6.9, 6.9, 6.9, 7.55, 7.55, 7.95, 8.2, 8.58, 8.86, 9.21, 8.86, 8.59, 8.87, 8.87, 9.17, 9.48, 9.46, 9.8, 9.8, 9.89, 9.48, 9.17, 9.17, 9.17, 9.17, 7.78, 4.1, 0.0, 0.0, 0.0, -11.62, -11.18, -10.73, -10.73, -11.18, -11.18, -7.9, -8.22, -0.0, -0.0, -0.0, -0.0, 3.68, 4.6, 3.11, 5.46, 3.53, 3.53, -0.0, -0.0, -5.0, -4.8, -9.2, -8.8, -10.28, 11.62, 12.07, 12.07, 9.39, 6.95, -0.0, -3.82, -3.04, -0.0, -0.0, -0.0, 8.53, 6.4, 14.13, 24.14, 8.62, -0.0, -0.0, 14.88, 8.22, 9.67, 9.48, 0.0, 0.0, -3.36, -2.35, 0.0, 2.15, 3.58, 0.0, -4.81, 0.0, 16.54, 15.2, 15.34, 13.15, 13.57, 13.44, 13.44, 6.46, 6.46, 6.46, 6.46, 6.9, 6.9, 6.9, 7.31, 7.55, 7.95, 8.2, 8.58, 8.86, 9.21, 9.21, 8.87, 8.87, 9.17, 9.17, 9.48, 9.8, 9.8, 9.83, 9.85, 10.3, 9.64, 9.69, 9.76, 9.17, 9.96, 9.17, 9.77, 10.01, 10.04, 10.8, 11.62, 11.62, 11.18, 10.73, 10.28, 10.0, 8.22, 9.67, 4.8, 7.27, 6.2, 7.9, 8.55, 8.18, 8.18, 5.95, 6.2, 5.7, 3.25, -0.0, -7.59, -9.6, -10.28, -9.39, -10.28, 12.07, 10.6, 10.84, 8.93, 5.6, -0.0, -0.0, -0.0, 12.96, 0.0, 5.8, 6.0, 10.43, 15.19, -4.88, -14.03, -11.0, -0.0, 8.8, 6.95, 3.68, 0.0, 14.3, -12.96, -3.36, 0.0, 0.0, -13.99, -15.2, -12.27, -2.98, 3.24, 14.95, 13.76, 12.65, 12.79, 12.79, 12.79, 6.25, 6.25, 6.46, 6.46, 6.9, 6.9, 7.16, 7.57, 7.83, 8.22, 7.95, 8.86, 8.86, 9.21, 9.21, 8.87, 8.59, 8.87, 8.87, 9.17, 9.48, 9.8, 9.83, 10.18, 10.24, 10.3, 10.03, 10.48, 10.25, 10.41, 10.61, 10.48, 11.09, 11.45, 11.84, 11.28, 11.62, 11.18, 11.18, 10.41, 10.84, 10.4, 10.0, 8.82, 8.43, 9.6, 9.75, 9.2, 8.8, 8.55, 9.3, 7.59, 5.95, 5.7, 3.39, -8.22, -11.18, -10.73, -10.28, -10.28, 11.18, 11.18, 10.84, 10.04, 5.2, -0.0, -0.0, 12.52, 0.0, 0.0, 6.4, 10.12, 8.38, 4.38, -14.75, -16.87, -13.14, -0.0, -0.0, 10.28, 0.0, 0.0, -0.0, -8.85, 12.52, 0.0, -6.6, -15.18, -13.02, -8.18, -2.89, 0.0, 10.33, 10.87, 11.7, 12.02, 11.68, 11.68, 6.5, 6.5, 6.5, 6.5, 7.16, 7.16, 7.16, 7.57, 7.57, 8.22, 8.22, 8.86, 8.86, 9.21, 9.5, 8.87, 8.87, 8.87, 9.17, 9.17, 9.48, 9.48, 9.8, 9.83, 10.18, 10.19, 10.66, 10.79, 10.56, 10.73, 10.8, 11.03, 11.3, 11.3, 11.18, 11.51, 11.62, 11.18, 11.18, 10.58, 11.02, 10.6, 10.38, 11.45, 10.04, 8.93, 8.63, 9.33, 10.08, 9.97, 9.3, 8.93, 7.27, 7.27, 7.59, -0.0, -12.07, -11.62, -10.73, -11.18, 11.18, 11.18, 12.07, 12.52, -0.0, -0.0, -0.0, -0.0, -11.62, -5.2, 0.0, 13.19, 12.74, 8.38, 0.0, -17.78, -21.9, -17.19, -0.0, -0.0, 12.07, 0.0, 12.52, -0.0, -0.0, -13.41, -11.16, -10.43, -5.64, -2.5, -2.43, 0.0, 2.57, 8.93, 10.87, 10.87, 11.7, 11.7, 6.5, 6.5, 6.5, 6.5, 6.92, 7.16, 7.57, 7.57, 7.57, 7.96, 8.22, 8.22, 8.86, 9.16, 9.21, 8.87, 8.87, 9.17, 8.87, 9.17, 9.17, 9.48, 9.8, 10.12, 10.45, 10.79, 10.9, 11.04, 11.02, 11.2, 11.39, 11.34, 11.21, 11.03, 11.35, 11.55, 11.62, 11.18, 11.18, 10.65, 10.62, 10.62, 10.75, 10.18, 10.0, 10.4, 10.38, 9.97, 10.14, 10.84, 10.6, 9.75, 7.27, 7.27, 7.59, 9.6, 6.95, -7.9, -11.62, -11.18, -10.73, 11.18, 12.07, -11.62, -5.4, -3.96, -0.0, -0.0, -0.0, 0.0, 0.0, 8.05, 14.79, 16.27, 14.03, 11.53, -6.22, -17.43, -12.96, -0.0, 21.01, 0.0, 11.62, 12.52, -0.0, -6.4, -13.86, -6.4, 0.0, 0.0, -2.43, -3.07, 0.0, 4.95, 6.34, 10.13, 10.13, 10.13, 6.27, 6.27, 6.27, 6.5, 6.92, 6.92, 7.32, 7.57, 7.57, 7.96, 7.96, 8.22, 8.87, 8.87, 8.87, 8.58, 8.87, 8.87, 9.17, 9.17, 9.48, 9.8, 9.8, 10.12, 10.45, 10.79, 11.12, 10.87, 11.2, 11.5, 11.68, 11.96, 11.45, 11.64, 11.44, 11.13, 11.18, 11.18, 10.73, 10.73, 10.66, 10.65, 10.65, 10.62, 10.18, 11.71, 11.91, 10.41, 9.89, 10.38, 10.41, 9.97, 9.97, 9.6, 9.6, 9.6, 9.75, 8.22, -9.6, -11.18, -10.6, -8.22, -10.8, -10.4, -8.53, -8.22, -8.22, 12.96, 12.07, 8.8, 3.15, 1.84, 11.06, 22.66, 20.72, 16.28, 12.92, 0.0, -16.54, 19.67, 21.9, 0.0, 12.96, 13.41, 13.86, -0.0, -10.12, -10.12, -14.3, 0.0, 0.0, 0.0, 0.0, 3.07, 4.3, 5.65, 7.6, 7.6, 6.53, 6.53, 6.53, 6.53, 7.19, 7.19, 7.59, 7.59, 7.59, 8.23, 8.23, 8.23, 8.23, 8.58, 8.58, 8.87, 8.87, 9.17, 8.85, 9.15, 9.46, 9.8, 10.12, 10.12, 10.45, 10.79, 10.73, 10.65, 11.6, 10.95, 11.79, 12.04, 11.96, 11.76, 11.93, 11.58, 11.14, 11.18, 10.73, 10.73, 10.28, 10.73, 10.66, 10.65, 10.65, 11.18, 11.09, 10.41, 10.41, 10.75, 10.18, 10.08, 10.52, 10.52, 9.97, 9.75, 10.6, 5.0, -9.6, -10.28, -11.71, -9.67, -11.62, -7.9, -8.22, -7.9, -7.27, 11.62, 8.85, 10.04, 6.17, 2.49, 0.0, 18.21, 29.06, 19.29, 11.5, 10.0, 13.86, 17.88, 18.33, 17.88, 15.65, 14.3, 14.75, 15.2, -0.0, -10.43, -10.12, -12.39, -13.86, 14.3, 0.0, 3.69, 4.81, 3.79, 5.65, 5.65, 6.29, 6.29, 6.29, 6.53, 6.94, 6.94, 7.59, 7.59, 7.59, 7.96, 8.24, 8.24, 8.24, 8.24, 8.24, 8.56, 8.85, 9.08, 9.42, 9.71, 9.71, 10.01, 10.01, 10.09, 10.41, 10.41, 10.73, 11.04, 10.94, 12.04, 10.95, 11.61, 11.61, 11.8, 11.93, 11.49, 11.59, 11.14, 11.18, 10.73, 10.28, 10.73, 10.73, 10.73, 11.18, 10.73, 10.73, 10.22, 10.41, 10.41, 10.18, 10.18, 11.02, 10.58, 10.08, 10.52, 10.52, 9.6, -9.2, -10.73, -10.32, -10.73, -10.4, -7.59, -7.9, -7.9, -4.8, 10.28, 10.4, 11.6, 11.45, 11.18, 3.68, 9.66, 26.72, 23.23, 13.19, 11.62, 11.16, 14.03, 15.97, 16.99, 16.54, 16.54, 16.46, 16.41, 15.27, -13.59, -10.12, -9.48, -9.17, -6.0, 13.86, 4.52, 2.81, 4.18, 4.18, 4.18, 6.56, 6.56, 6.56, 6.96, 6.96, 7.22, 7.6, 7.6, 7.96, 7.96, 8.24, 7.96, 8.24, 8.24, 8.24, 8.53, 8.82, 8.82, 9.37, 9.71, 10.01, 10.01, 10.31, 10.31, 10.61, 10.73, 10.73, 11.04, 11.47, 11.21, 10.95, 11.18, 11.18, 11.8, 11.95, 11.49, 11.59, 11.59, 11.14, 10.73, 10.73, 10.28, 10.73, 10.73, 10.73, 10.28, 10.28, 10.28, 10.66, 10.65, 10.65, 11.09, 10.62, 10.18, 10.18, 10.28, 10.28, 9.83, 10.28, -10.73, -12.52, -11.18, -7.9, -7.9, -7.27, -9.6, -9.6, -10.73, 11.62, 12.52, 12.52, 12.52, 11.2, 10.75, 17.99, 23.19, 18.78, 11.06, 10.65, 13.07, 15.71, 16.54, 16.54, 16.86, 16.41, 15.71, 15.27, 15.2, -6.4, -7.44, -6.94, -5.6, -8.85, 0.0, 3.25, 2.43, 4.18, 4.18, 6.31, 6.31, 6.31, 6.96, 6.96, 7.33, 7.33, 7.6, 8.24, 8.24, 8.24, 8.24, 7.95, 8.24, 8.22, 8.53, 8.82, 9.12, 9.37, 9.66, 10.01, 10.31, 10.31, 10.61, 10.61, 10.91, 11.2, 11.2, 11.47, 11.72, 11.45, 11.03, 11.23, 11.36, 11.36, 11.51, 11.49, 11.59, 11.14, 11.18, 10.73, 10.28, 10.28, 10.73, 10.28, 10.28, 9.83, 10.28, 10.28, 10.73, 10.73, 11.18, 10.73, 10.28, 10.73, 10.28, 9.83, 9.83, 9.83, 10.28, -9.33, -8.22, -7.59, -10.0, -10.0, -11.18, -10.73, -11.18, -7.9, 0.0, 0.0, 0.0, 12.79, 13.68, 16.87, 20.36, 20.4, 15.25, 13.92, 15.99, 17.02, 16.99, 15.65, 14.99, 15.65, 14.64, 14.75, 14.75, 13.41, -0.0, -0.0, -3.96, -8.85, 12.52, 0.0, 2.54, 2.09, 2.09, 6.58, 6.58, 6.58, 6.97, 6.97, 7.61, 7.61, 7.61, 7.95, 7.95, 8.24, 8.24, 8.24, 8.22, 8.22, 8.22, 9.12, 9.12, 9.42, 9.66, 9.95, 9.95, 10.61, 10.61, 10.91, 10.91, 11.2, 11.47, 11.47, 11.72, 11.95, 11.52, 11.23, 10.96, 10.96, 11.06, 11.06, 11.15, 11.14, 11.14, 10.73, 10.73, 10.28, 9.83, 9.83, 9.83, 9.83, 10.28, 10.28, 10.73, 10.73, 10.73, 10.28, 10.73, 10.28, 9.83, 9.83, 9.83, 9.83, 10.28, 10.28, -7.15, -10.18, -9.75, -10.28, -11.18, -10.28, -10.73, -11.18, -10.0, 0.0, 0.0, 14.84, 16.9, 18.96, 17.15, 17.36, 18.48, 20.17, 18.91, 19.1, 16.09, 12.96, 12.96, 13.41, 12.71, 12.58, 12.14, 12.14, 12.3, 11.6, -0.0, -0.0, -0.0, 12.52, 0.0, 2.28, 2.28, 6.33, 6.33, 6.58, 6.97, 6.97, 7.33, 7.33, 7.9, 8.24, 8.24, 8.24, 7.93, 8.22, 8.52, 8.52, 8.52, 9.42, 9.42, 9.42, 9.73, 9.95, 10.24, 10.24, 10.52, 10.67, 10.92, 10.92, 11.06, 11.06, 11.3, 11.52, 11.52, 11.71, 11.23, 10.96, 10.96, 11.08, 11.06, 11.15, 11.14, 10.7, 10.73, 10.28, 11.18, 9.39, 9.83, 10.28, 10.28, 10.28, 10.73, 10.73, 10.73, 10.28, 10.73, 9.83, 9.83, 9.83, 9.39, 9.83, 9.83, 9.83, -6.64, -9.75, -9.33, -10.18, -10.6, -9.33, -9.75, -10.73, -9.6, -8.22, -9.17, 15.65, 18.78, 21.01, 17.64, 13.27, 16.27, 21.56, 21.41, 18.59, 15.65, 13.41, 12.07, 11.71, 12.04, 12.72, 12.3, 12.79, 12.71, 12.96, 13.41, 13.41, 13.41, 12.96, 0.0, 0.0, 0.0, 6.33, 6.33, 6.33, 6.71, 6.98, 7.61, 7.61, 7.61, 7.93, 7.93, 8.22, 7.9, 8.19, 8.52, 8.78, 9.08, 9.08, 9.42, 9.73, 9.73, 9.73, 10.24, 10.24, 10.52, 10.52, 10.92, 10.92, 11.16, 11.16, 11.38, 11.52, 11.52, 11.71, 11.28, 11.42, 10.96, 11.08, 11.08, 11.06, 10.7, 10.7, 10.7, 10.28, 11.62, 9.83, 9.83, 10.25, 10.25, 10.24, 10.68, 10.23, 10.28, 10.28, 10.28, 9.83, 9.39, 9.39, 9.32, 9.29, 9.74, 9.64, 9.39, -7.59, -8.91, -8.8, -9.6, -10.18, -10.28, -10.73, -10.0, -10.0, -9.17, 0.0, 17.43, 24.14, 22.8, 13.81, 12.0, 15.74, 16.97, 15.19, 14.9, 15.2, 14.75, 12.87, 12.72, 12.74, 13.32, 12.89, 13.28, 13.41, 13.41, 11.99, 9.48, 9.48, 9.17, 6.0, 0.0, 6.33, 6.33, 6.33, 6.98, 6.98, 7.32, 7.32, 7.91, 8.22, 8.22, 8.19, 8.19, 8.19, 8.45, 9.08, 9.08, 9.08, 9.37, 9.73, 9.73, 10.04, 10.24, 10.52, 10.52, 10.52, 10.8, 10.8, 11.16, 11.16, 11.38, 11.3, 11.52, 11.52, 11.71, 11.28, 11.4, 10.96, 10.96, 11.08, 10.62, 10.7, 10.25, 10.25, 9.8, 11.62, 9.83, 10.7, 10.58, 10.08, 10.23, 9.77, 9.77, 9.33, 9.33, 9.33, 9.33, 8.87, 8.87, 9.29, 9.29, 9.7, 8.91, -0.0, -8.8, -9.2, -9.2, -9.83, -10.28, -10.73, -11.18, -11.18, -5.2, 0.0, 8.68, 19.67, 26.02, 24.14, 13.97, 10.69, 10.82, 11.99, 13.15, 13.41, 12.89, 12.14, 12.98, 13.57, 14.4, 14.22, 13.77, 13.86, 13.59, 11.53, 6.2, 6.0, 6.0, 5.8, 6.0, 6.34, 6.34, 6.61, 6.98, 6.98, 6.98, 7.6, 7.6, 7.9, 8.19, 8.19, 8.19, 8.45, 8.73, 8.73, 9.08, 9.37, 9.37, 9.37, 9.67, 10.04, 10.52, 10.52, 10.52, 10.8, 10.8, 10.8, 11.06, 11.06, 11.3, 11.3, 11.09, 11.09, 11.28, 11.28, 11.23, 11.4, 10.96, 10.93, 10.62, 10.6, 10.16, 10.16, 10.14, 9.72, 11.12, 10.25, 10.14, 9.64, 9.64, 9.16, 9.16, 9.16, 8.89, 8.89, 8.89, 8.43, 8.67, 8.67, 9.03, 9.03, 8.72, 10.73, -6.95, -8.8, -10.28, -9.83, -10.73, -10.28, -11.18, -10.4, 0.0, 0.0, 4.38, 13.99, 19.51, 28.84, 25.87, 11.09, 11.12, 13.7, 14.75, 13.44, 12.6, 12.94, 13.37, 14.07, 14.69, 14.69, 14.3, 14.3, 14.3, 12.39, 4.38, 0.0, 0.0, 5.8, 5.8, 6.34, 6.34, 6.34, 6.34, 6.7, 6.98, 7.6, 7.6, 7.6, 8.19, 8.19, 8.19, 8.73, 8.73, 8.73, 9.01, 9.37, 9.37, 9.37, 9.67, 9.86, 10.13, 10.13, 10.8, 10.8, 10.8, 11.06, 11.06, 11.06, 11.3, 10.88, 11.09, 11.09, 11.03, 11.23, 11.23, 11.4, 11.4, 10.93, 11.06, 10.6, 10.6, 10.16, 10.16, 10.45, 10.62, 10.18, 9.8, 9.24, 9.21, 9.21, 8.73, 8.73, 8.73, 8.29, 8.29, 7.81, 8.24, 8.67, 8.67, 9.03, 8.48, 7.6, -9.83, -8.8, -6.95, -7.27, -10.28, -10.28, -11.18, -10.4, 0.0, 0.0, 2.45, 4.66, 0.0, 21.9, 31.74, 28.16, 19.67, 18.21, 15.99, 16.51, 14.95, 13.07, 13.67, 13.8, 14.3, 14.75, 14.3, 14.3, 14.22, 13.15, 7.44, 0.0, 4.1, 4.1, 4.1, 6.34, 6.34, 6.34, 6.34, 6.98, 6.98, 6.98, 7.3, 7.59, 7.86, 7.86, 8.15, 8.73, 8.73, 8.73, 9.01, 9.01, 9.37, 9.67, 9.67, 10.13, 10.13, 10.13, 10.4, 10.4, 10.4, 10.65, 10.65, 10.65, 10.88, 10.88, 11.09, 11.03, 11.03, 11.23, 11.23, 11.23, 11.36, 11.36, 10.93, 10.89, 10.45, 10.45, 10.45, 10.45, 10.89, 10.6, 9.72, 9.26, 8.8, 8.8, 8.77, 8.73, 8.73, 8.29, 8.24, 7.81, 7.81, 8.24, 8.67, 8.37, 8.0, 7.44, 10.73, -6.95, -6.95, -9.2, -9.6, -10.28, -11.18, -10.0, -3.39, 0.0, 4.1, 4.24, 2.98, 12.64, 23.69, 30.25, 23.68, 19.05, 19.48, 17.82, 17.26, 14.37, 13.81, 14.3, 14.3, 14.3, 14.23, 13.79, 13.53, 12.87, 0.0, 0.0, 0.0, 0.0, 0.0, 6.34, 6.34, 6.63, 6.98, 6.98, 6.98, 6.98, 7.3, 7.59, 7.59, 7.86, 8.15, 8.15, 8.73, 9.01, 9.01, 9.01, 9.01, 9.67, 9.67, 10.13, 10.13, 10.13, 10.4, 10.4, 10.4, 10.65, 10.65, 10.65, 10.88, 10.88, 11.03, 11.03, 11.03, 11.23, 11.23, 11.18, 11.18, 11.36, 10.89, 10.89, 10.45, 10.45, 10.45, 10.45, 10.45, 10.45, 10.16, 9.7, 9.7, 9.24, 9.06, 8.56, 8.48, 8.48, 7.95, 7.95, 7.53, 7.53, 7.95, 7.95, 8.22, 7.15, 8.49, -7.59, -6.95, -8.8, -7.81, -9.2, -10.73, -8.22, 0.0, 0.0, 3.96, 7.44, 10.12, 16.09, 18.33, 22.36, 22.25, 21.09, 22.89, 22.6, 17.68, 16.76, 15.12, 14.75, 14.75, 14.68, 13.01, 14.11, 8.85, 4.1, 0.0, -4.1, -3.04, -3.04, -3.04, 6.63, 6.63, 6.63, 6.98, 6.98, 6.98, 6.98, 7.59, 7.59, 7.59, 7.59, 8.15, 8.15, 8.38, 9.01, 9.01, 9.01, 9.01, 9.3, 9.67, 10.13, 10.13, 10.13, 10.4, 10.4, 10.4, 10.65, 10.65, 10.65, 10.88, 10.88, 10.79, 11.03, 11.03, 11.03, 11.23, 11.18, 11.18, 11.18, 11.33, 10.89, 10.89, 10.89, 10.45, 10.45, 10.45, 10.45, 9.97, 9.97, 9.54, 9.49, 9.06, 8.99, 8.56, 8.48, 8.06, 7.95, 7.53, 7.53, 7.53, 7.95, 7.81, 6.98, 6.64, -6.32, -7.27, -6.95, -8.48, -9.33, -10.28, -4.6, 0.0, 0.0, 4.65, 8.05, 13.15, 15.2, 15.93, 16.96, 15.17, 18.02, 25.1, 25.93, 21.47, 19.41, 16.41, 16.54, 15.99, 13.75, 12.39, 12.72, 8.53, 0.0, -3.96, -6.94, -6.7, -6.7, -6.7, 6.35, 6.35, 6.35, 6.69, 6.69, 6.97, 6.97, 7.27, 7.27, 7.59, 7.59, 7.88, 8.15, 8.15, 8.65, 9.01, 9.01, 9.01, 9.3, 9.3, 9.97, 10.13, 10.13, 10.4, 10.4, 10.4, 10.65, 10.65, 10.65, 10.88, 10.79, 10.79, 11.03, 11.03, 11.03, 11.23, 11.18, 11.18, 11.18, 10.75, 10.68, 10.68, 10.68, 10.68, 10.25, 10.25, 10.18, 9.75, 9.97, 9.92, 9.49, 9.06, 9.06, 8.3, 7.76, 7.76, 7.6, 7.53, 7.53, 7.53, 7.53, 7.6, 7.07, 6.32, -6.32, -6.95, -6.64, -8.4, -9.83, -9.83, -4.6, -3.53, 0.0, 2.45, 7.19, 12.72, 14.3, 14.99, 13.39, 9.61, 12.22, 22.4, 25.99, 22.9, 19.93, 17.39, 15.34, 14.75, 13.86, 11.6, 12.52, 12.52, -8.53, -8.53, -6.7, -6.7, -6.7, -6.7, 6.35, 6.35, 6.35, 6.35, 6.97, 6.97, 6.97, 6.97, 7.27, 7.27, 7.27, 7.55, 8.15, 8.15, 8.15, 8.65, 9.01, 9.3, 9.3, 9.3, 9.3, 9.97, 10.13, 10.4, 10.4, 10.4, 10.65, 10.65, 10.65, 10.79, 10.79, 10.79, 11.03, 11.03, 11.03, 11.03, 11.18, 10.75, 10.75, 10.75, 10.68, 10.68, 10.68, 10.68, 10.68, 10.25, 10.18, 9.75, 9.66, 9.66, 9.24, 9.24, 8.82, 8.4, 8.3, 7.76, 7.76, 7.2, 7.2, 7.2, 6.8, 7.2, 7.07, 6.32, 8.94, -9.2, -8.8, -8.4, -9.83, -9.83, -10.28, -7.59, -3.68, 0.0, 0.0, 9.48, 13.86, 10.12, 7.59, 7.0, 11.7, 16.74, 20.41, 20.93, 18.97, 11.8, 3.69, -0.0, 12.96, 12.52, -8.85, -8.53, -10.4, -10.0, -7.9, -5.95, -5.95, -5.95, 6.35, 6.35, 6.35, 6.35, 6.97, 6.97, 6.97, 6.97, 7.27, 7.27, 7.55, 7.55, 7.55, 8.15, 8.15, 8.44, 8.44, 9.01, 9.3, 9.3, 9.3, 9.58, 9.58, 9.58, 10.0, 10.0, 10.0, 10.53, 10.53, 10.53, 10.79, 10.79, 10.79, 11.03, 11.03, 10.95, 10.52, 10.52, 10.75, 10.75, 10.68, 10.68, 10.68, 10.68, 10.68, 10.6, 10.18, 10.18, 9.66, 9.66, 9.24, 9.24, 8.72, 8.3, 8.0, 7.76, 7.76, 7.35, 7.2, 7.2, 7.2, 6.8, 6.7, 5.1, -8.49, -8.94, -8.94, -8.4, -8.4, -6.95, -4.4, -7.27, -7.9, -5.4, 0.0, 0.0, 13.41, -0.0, 4.52, 6.6, 11.06, 10.59, 12.07, 13.27, 14.26, 4.12, -2.1, -4.6, -0.0, -0.0, -8.53, -6.97, -7.59, -10.28, -8.18, -7.81, -7.81, -7.81, 5.98, 5.72, 5.72, 6.08, 6.64, 6.97, 6.97, 6.97, 7.27, 7.27, 7.55, 7.55, 7.55, 7.55, 8.15, 8.44, 8.44, 8.44, 9.3, 9.3, 9.3, 9.58, 9.58, 9.58, 9.86, 9.86, 9.86, 10.13, 10.13, 10.13, 10.79, 10.79, 10.79, 10.38, 10.52, 10.52, 10.52, 10.52, 10.52, 10.52, 10.43, 10.43, 10.43, 10.43, 10.43, 10.32, 10.18, 10.18, 9.66, 9.66, 9.66, 8.8, 8.4, 8.0, 8.0, 7.6, 7.42, 7.03, 6.82, 6.82, 7.2, 6.8, 6.18, 4.83, -5.69, -8.94, -8.94, -9.39, -6.64, -4.4, -0.0, -0.0, -0.0, -5.0, -8.53, -10.41, -12.96, -12.96, -0.0, 4.66, 8.18, 7.59, 7.0, 10.41, 19.28, -0.0, -0.0, -4.8, -7.59, 0.0, -0.0, -3.68, -5.0, -10.18, -9.97, -8.8, -8.8, -8.8, 5.72, 5.72, 5.72, 6.35, 6.35, 6.35, 6.97, 6.97, 6.97, 7.55, 7.55, 7.55, 7.55, 7.55, 7.88, 8.44, 8.44, 8.44, 8.73, 9.3, 9.3, 9.58, 9.58, 9.58, 9.86, 9.86, 9.86, 9.86, 10.13, 10.13, 10.13, 10.38, 10.38, 10.38, 10.27, 10.27, 10.52, 10.52, 10.52, 10.52, 10.43, 10.43, 10.43, 10.43, 10.32, 10.32, 9.9, 9.9, 9.77, 9.36, 9.36, 8.8, 8.8, 8.0, 8.0, 7.6, 7.42, 7.03, 7.03, 6.82, 6.82, 6.44, 6.18, 4.75, 0.0, -7.15, -9.39, -9.39, 9.39, 9.83, 10.28, -0.0, -0.0, -9.83, -9.3, -10.4, -12.14, -12.96, -9.48, -0.0, 4.52, 3.47, 3.47, 7.6, 10.13, -0.0, -0.0, -0.0, 0.0, 0.0, 0.0, -0.0, -2.82, -10.6, -10.41, -8.8, -8.8, -8.8, 5.72, 5.72, 5.72, 6.0, 6.35, 6.35, 6.35, 6.67, 6.97, 7.27, 7.55, 7.55, 7.55, 7.55, 7.85, 8.19, 8.44, 8.44, 8.44, 8.73, 9.09, 9.09, 9.58, 9.58, 9.86, 9.86, 9.86, 9.86, 10.13, 10.13, 10.13, 10.13, 10.0, 10.27, 10.27, 10.27, 10.27, 10.27, 10.27, 10.52, 10.43, 10.43, 10.43, 10.43, 10.32, 10.32, 9.9, 9.9, 9.77, 9.36, 9.36, 8.8, 8.8, 8.0, 8.0, 7.28, 7.28, 7.07, 7.03, 7.03, 6.44, 6.44, 6.18, 5.37, 2.4, -7.6, -6.64, -9.39, -6.95, 0.0, 0.0, 0.0, 0.0, 0.0, -8.55, -9.3, -11.45, -12.52, -9.17, -0.0, -0.0, -0.0, -0.0, 8.62, -0.0, -0.0, -0.0, -0.0, 0.0, -4.6, -6.2, 11.18, -0.0, -11.62, -10.41, -9.97, -9.97, -9.97, 5.08, 5.08, 5.72, 5.72, 6.0, 6.35, 6.35, 6.35, 6.95, 6.95, 6.95, 7.55, 7.55, 7.55, 7.85, 7.85, 8.19, 8.44, 8.73, 8.73, 8.73, 8.73, 9.4, 9.58, 9.86, 9.86, 9.86, 9.86, 9.86, 10.13, 10.13, 10.0, 10.0, 10.0, 10.0, 10.27, 10.27, 10.27, 10.27, 10.15, 10.15, 10.15, 10.43, 10.43, 10.32, 10.32, 10.32, 9.9, 9.77, 9.36, 9.36, 8.95, 8.4, 8.0, 7.67, 7.28, 7.28, 7.07, 6.7, 6.7, 6.32, 6.44, 6.18, 5.84, 4.56, 7.6, -5.37, -7.6, -7.27, -4.6, 0.0, 0.0, 0.0, 0.0, 0.0, -7.59, -8.22, -12.07, -12.52, -8.85, -0.0, -0.0, -0.0, -0.0, -0.0, -3.09, -5.99, -5.8, -12.07, -11.4, -10.84, -11.18, -0.0, -11.18, -10.41, -9.97, -9.97, -9.97, 5.34, 5.34, 5.34, 5.72, 5.72, 5.72, 6.35, 6.35, 6.65, 6.95, 6.95, 7.27, 7.55, 7.55, 7.85, 7.85, 7.85, 7.85, 8.5, 8.73, 8.73, 8.73, 9.02, 9.4, 9.4, 9.7, 9.86, 9.86, 9.86, 10.13, 10.13, 10.0, 10.0, 10.0, 10.0, 10.0, 10.27, 10.27, 10.15, 10.15, 10.15, 10.15, 10.15, 10.43, 10.32, 10.32, 10.32, 9.9, 9.77, 9.77, 9.36, 9.36, 8.4, 8.05, 7.67, 7.28, 7.28, 7.07, 6.7, 6.7, 6.7, 6.44, 6.18, 5.84, 5.69, 0.0, -5.69, -8.05, -9.2, -4.8, -3.39, -3.39, -2.6, -2.49, 0.0, 0.0, 0.0, -5.2, -12.52, -12.52, -5.6, -3.25, -3.68, -0.0, -0.0, -4.34, -6.2, -7.59, -10.18, -11.18, -11.02, -11.62, -8.22, -11.18, -11.18, -9.54, -9.54, -9.54, 5.34, 5.34, 5.34, 5.72, 5.72, 5.72, 6.06, 6.34, 6.65, 6.65, 6.95, 6.95, 7.27, 7.27, 7.85, 7.85, 7.85, 7.85, 8.15, 8.5, 8.5, 8.5, 9.02, 9.02, 9.02, 9.32, 9.32, 9.7, 9.7, 10.0, 10.0, 10.0, 10.0, 10.0, 10.0, 10.0, 10.0, 10.15, 10.15, 10.15, 10.15, 10.15, 9.74, 9.74, 9.9, 9.9, 9.9, 9.9, 9.77, 9.77, 9.36, 9.36, 8.05, 8.05, 7.67, 7.44, 7.07, 7.07, 6.7, 6.7, 6.7, 6.44, 6.82, 6.18, 5.03, 3.6, -6.01, -8.06, -8.33, -10.18, -7.59, -5.95, -4.8, -5.7, -4.6, 0.0, 0.0, 0.0, -5.2, -12.07, -11.2, -6.4, -3.51, -0.0, -0.0, -0.0, -7.2, -7.44, -10.0, -11.18, -11.28, -11.62, -11.03, -11.62, -11.18, -9.75, -9.75, -9.75, 5.34, 5.34, 5.34, 5.34, 5.72, 6.01, 6.01, 6.34, 6.34, 6.65, 6.65, 6.95, 7.27, 7.27, 7.58, 7.85, 7.85, 7.85, 8.15, 8.15, 8.15, 8.5, 8.82, 9.02, 9.02, 9.02, 9.32, 9.32, 9.32, 9.6, 10.0, 10.0, 10.0, 9.6, 9.6, 9.6, 9.84, 10.15, 10.15, 10.15, 10.15, 9.74, 9.74, 9.74, 9.6, 9.6, 9.9, 9.9, 9.77, 9.42, 9.03, 8.43, 8.05, 8.05, 7.67, 7.44, 7.07, 7.07, 7.07, 6.7, 6.7, 6.44, 6.82, 6.55, 5.69, 2.69, -8.49, -8.49, -8.38, -9.2, -9.2, -8.58, -7.27, -6.95, -6.95, 0.0, 6.95, 0.0, 0.0, -8.22, -12.3, -11.53, -8.68, -0.0, 6.29, -0.0, -4.66, -9.49, -8.73, -11.02, -11.62, -11.62, -12.07, -11.62, -10.0, -10.6, -10.6, -10.6, 5.34, 5.34, 5.34, 5.34, 5.63, 6.01, 6.01, 6.01, 6.34, 6.65, 6.65, 6.65, 6.95, 7.27, 7.58, 7.58, 7.58, 7.85, 8.15, 8.15, 8.15, 8.15, 8.45, 8.82, 8.82, 8.82, 9.14, 9.32, 9.32, 9.32, 9.6, 9.6, 9.6, 9.6, 9.6, 9.6, 9.86, 10.15, 10.15, 10.15, 10.15, 9.74, 9.74, 9.6, 9.6, 9.6, 9.6, 9.6, 9.42, 9.42, 9.03, 8.43, 8.43, 8.05, 7.67, 7.67, 7.07, 7.07, 7.07, 7.07, 6.7, 6.44, 6.44, 6.91, 6.01, 3.8, -6.32, -8.94, -8.48, -9.2, -8.23, -8.23, -6.95, -5.21, -2.28, 0.0, 4.2, 5.21, 0.0, -11.62, -12.52, -12.72, -10.43, -0.0, 7.49, 12.39, -0.0, -7.0, -7.82, -9.3, -11.62, -11.53, -11.21, -8.53, -8.22, -8.22, -8.22, -8.22, 4.92, 4.92, 5.34, 5.34, 5.63, 5.63, 6.01, 6.01, 6.01, 6.34, 6.65, 6.65, 6.65, 7.25, 7.58, 7.58, 7.58, 7.58, 7.9, 8.15, 8.15, 8.15, 8.45, 8.45, 8.82, 8.82, 9.14, 9.14, 9.14, 9.14, 9.14, 9.6, 9.6, 9.6, 9.6, 9.6, 9.86, 9.74, 9.74, 9.74, 9.74, 9.74, 9.6, 9.6, 9.6, 9.6, 9.6, 9.6, 9.42, 9.42, 9.03, 8.63, 8.43, 8.05, 7.67, 7.67, 7.07, 7.07, 6.7, 6.7, 6.7, 6.79, 6.79, 6.45, 5.44, 4.37, 0.0, -8.0, -8.0, -6.98, -6.01, -7.9, -6.17, -2.97, 0.0, 0.0, 0.0, 0.0, 10.28, 11.62, -12.52, -13.41, -13.19, -7.4, -0.0, 19.6, -0.0, -5.09, -7.93, -9.48, -12.27, -11.95, -11.2, -10.37, -6.7, -8.53, -8.53, -8.53, 4.92, 4.92, 4.92, 5.34, 5.63, 5.63, 6.01, 6.01, 6.01, 6.01, 6.65, 6.65, 6.65, 6.95, 6.95, 7.25, 7.25, 7.25, 7.56, 7.9, 7.9, 8.15, 8.15, 8.45, 8.45, 8.45, 9.14, 9.14, 9.14, 9.14, 9.14, 9.14, 9.45, 9.45, 9.45, 9.45, 9.74, 9.74, 9.74, 9.74, 9.74, 9.74, 9.74, 9.6, 9.6, 9.6, 9.6, 9.6, 9.42, 9.42, 9.03, 8.63, 8.43, 8.05, 8.05, 7.67, 6.96, 6.7, 6.7, 6.7, 6.7, 6.7, 6.39, 6.45, 6.01, 4.71, 2.17, -4.0, -7.44, -6.32, -6.64, -7.9, -5.7, -4.8, -2.97, -4.4, -4.4, -6.95, 10.28, 0.0, 12.07, -12.96, -14.3, -11.06, -0.0, 27.72, 21.9, -0.0, -10.12, -12.39, -12.52, -12.35, -11.45, -11.2, -10.41, -8.53, -8.53, -8.53, 4.92, 4.92, 4.92, 4.92, 5.63, 5.63, 5.63, 6.01, 6.01, 6.01, 6.01, 6.65, 6.65, 6.95, 6.95, 6.95, 7.25, 7.25, 7.56, 7.56, 7.56, 7.9, 7.9, 8.23, 8.45, 8.45, 8.45, 9.14, 9.14, 9.14, 9.14, 9.14, 9.45, 9.45, 9.45, 9.45, 9.45, 9.74, 9.74, 9.74, 9.74, 9.74, 9.74, 9.74, 9.6, 9.6, 9.6, 9.6, 9.6, 9.03, 9.03, 8.63, 8.43, 8.05, 8.05, 7.67, 7.32, 6.7, 6.7, 6.7, 6.7, 6.7, 6.39, 6.01, 5.53, 4.21, 3.32, 0.0, -6.32, -7.15, -7.33, -6.64, -6.64, -10.4, -6.64, -6.95, -6.95, -8.8, -7.27, 0.0, 0.0, 0.0, -13.86, 14.75, 18.78, 25.03, 24.14, 18.78, 15.65, 14.75, -13.86, -13.41, -12.58, -11.87, -11.2, -8.85, -8.85, -8.85, 4.92, 4.92, 4.92, 4.92, 5.63, 5.63, 5.63, 6.01, 6.01, 6.01, 6.01, 6.65, 6.65, 6.95, 6.95, 6.95, 7.25, 7.25, 7.56, 7.56, 7.56, 7.9, 7.9, 8.23, 8.45, 8.45, 8.45, 9.14, 9.14, 9.14, 9.14, 9.14, 9.45, 9.45, 9.45, 9.45, 9.45, 9.74, 9.74, 9.74, 9.74, 9.74, 9.74, 9.74, 9.6, 9.6, 9.6, 9.6, 9.6, 9.03, 9.03, 8.63, 8.43, 8.05, 8.05, 7.67, 7.32, 6.7, 6.7, 6.7, 6.7, 6.7, 6.39, 6.01, 5.53, 4.21, 3.32, 0.0, -6.32, -7.15, -7.33, -6.64, -6.64, -10.4, -6.64, -6.95, -6.95, -8.8, -7.27, 0.0, 0.0, 0.0, 0.0, 0.0, 16.09, 20.12, 23.69, 21.01, 19.22, 16.09, 15.2, 14.3, 13.86, 13.41, 12.52, 12.07, 12.07, 12.07]}, {"header": {"dx": 0.06612293990616946, "dy": 0.0552356325346848, "nx": 98, "ny": 59, "la1": 35.046912555036876, "la2": 31.78801023549047, "lo1": -121.43107172385933, "lo2": -114.95102361305473, "refTime": "2026041514", "parameterCategory": 1, "parameterNumber": 3}, "data": [-12.93, -13.05, -12.9, -12.86, -13.02, -12.99, -12.95, -13.02, -13.28, -13.44, -13.41, -12.14, -13.15, -10.79, -8.53, -6.97, -5.77, -5.0, -3.68, -3.96, -1.83, -0.0, 5.2, 6.98, 8.73, 9.3, 10.04, 11.87, 12.07, 12.07, 11.2, 9.17, 6.94, 5.0, 2.49, 0.0, 0.0, 0.0, 0.0, 10.28, 9.83, 10.0, 0.0, -6.7, -8.1, -8.46, -9.66, -8.45, -8.59, -8.78, -7.93, 10.43, 13.59, 13.02, 13.42, 12.22, 11.06, 8.68, 8.43, 5.81, 4.66, 3.58, 0.0, 10.12, 9.8, 6.4, 5.63, 3.47, 4.37, 3.9, 2.45, 2.8, 1.73, 0.0, 0.0, 1.73, 2.64, 0.0, 0.0, 6.6, 7.93, 9.48, 7.19, 3.96, -0.0, -0.0, 0.0, 0.0, 0.0, -3.53, -6.94, -9.48, -11.28, -11.33, -10.43, -8.58, -5.8, -7.19, -12.53, -12.38, -12.5, -13.04, -13.19, -13.19, -12.79, -12.56, -12.79, -13.15, -12.3, -13.86, -12.96, -12.52, -12.96, -10.8, -6.44, -6.21, -5.4, -5.2, -3.68, -1.83, -0.0, 5.8, 7.59, 8.94, 10.4, 10.04, 10.8, 11.2, 14.3, 12.39, 11.87, 8.18, 4.46, 2.17, 0.0, -2.83, -6.64, 0.0, 8.85, 0.0, -5.8, -8.53, -10.73, -11.2, -10.87, -9.8, -9.32, -8.85, 0.0, 14.42, 12.65, 11.87, 12.65, 12.22, 11.06, 9.73, 7.54, 6.6, 5.81, 4.66, 7.93, 9.8, 9.8, 7.13, 5.63, 5.02, 4.81, 4.23, 4.01, 2.88, 1.78, 0.0, 0.0, 2.09, 1.34, 0.0, 0.0, 6.6, 7.93, 9.48, 7.19, 3.96, -0.0, -0.0, 0.0, 0.0, 0.0, -3.53, -6.94, -9.48, -11.28, -11.33, -10.43, -8.58, -5.8, -7.19, -12.53, -12.53, -12.66, -12.5, -12.47, -12.62, -12.6, -12.79, -12.17, -12.45, -12.14, -11.03, -12.3, -11.45, -9.67, -9.67, -11.62, -6.97, -5.99, -5.8, -4.08, -4.93, -3.44, -2.2, 3.36, 7.59, 9.6, 9.6, 10.6, 8.22, -0.0, -0.0, 10.12, 11.18, 6.01, 2.83, 0.0, 0.0, -5.46, -5.2, -8.53, -9.82, -9.77, -10.66, -11.64, -11.64, -10.37, -10.02, -10.43, 0.0, 12.65, 12.65, 12.16, 11.87, 12.27, 11.87, 9.73, 8.83, 6.6, 5.18, 5.18, 5.63, 7.13, 8.66, 9.8, 7.93, 7.32, 7.0, 6.35, 5.98, 5.5, 4.23, 1.73, -2.98, -8.18, -2.89, 0.0, 0.0, 0.0, -0.0, -0.0, 9.48, -0.0, -5.4, -3.68, -0.0, 0.0, 0.0, 0.0, -5.6, -8.58, -10.43, -11.8, -12.0, -10.99, -9.48, -7.19, -6.94, -12.53, -12.53, -12.38, -12.5, -12.64, -12.47, -12.42, -12.2, -12.39, -12.21, -11.44, -10.88, -12.14, -10.4, -10.4, -9.67, -6.45, -12.07, -5.98, -3.82, -2.71, -1.84, -3.07, -3.82, -2.62, -0.0, 7.27, 8.18, 9.33, 10.0, -0.0, -7.69, -7.0, -7.0, 0.0, 0.0, 0.0, -2.6, -6.42, -8.93, -9.42, -10.79, -10.66, -10.41, -9.77, -9.17, -8.05, -5.31, 0.0, 10.43, 11.8, 10.75, 10.43, 11.52, 11.52, 10.43, 8.18, 7.32, 6.6, 5.02, 3.58, 5.63, 7.93, 10.65, 9.8, 10.43, 9.09, 9.39, 10.7, 9.6, 7.92, 4.95, 3.07, 0.0, -13.57, -12.39, -6.6, -2.31, -3.69, -4.38, -4.24, -0.0, -9.17, -6.45, -2.71, -3.68, 0.0, 0.0, -5.75, -7.34, -9.33, -9.71, -11.09, -10.18, -10.12, -7.44, -3.14, -4.65, -12.67, -12.53, -12.38, -12.66, -12.5, -12.64, -12.23, -12.03, -11.81, -11.6, -10.99, -10.62, -11.21, -11.28, -10.96, -11.4, -10.4, -11.28, -6.97, -3.47, -1.61, -0.0, -0.0, -1.64, -1.18, -0.0, -0.0, 5.4, 11.18, 10.28, 0.0, -9.3, -9.3, -10.73, -14.3, -11.9, -12.65, -8.31, -6.77, -9.08, -10.48, -9.69, -8.73, -3.81, -1.72, 0.0, 0.0, 1.77, 3.58, 5.99, 9.22, 8.94, 10.12, 10.43, 10.43, 8.18, 8.18, 7.32, 6.6, 4.52, 3.47, 6.2, 9.8, 12.0, 11.2, 10.76, 11.06, 10.76, 12.96, 12.35, 9.42, 5.26, 5.39, 4.79, -4.95, -12.71, -10.65, -5.31, -2.28, -9.48, -7.19, -7.19, -6.7, -5.0, -5.75, -9.67, -11.45, -6.97, -8.73, -9.33, -8.58, -8.44, -8.15, -9.17, -9.17, -4.24, -2.13, -1.77, -12.67, -12.53, -12.53, -12.66, -12.5, -11.94, -12.08, -11.83, -11.99, -11.41, -10.8, -10.17, -11.21, -10.4, -10.38, -11.02, -11.02, -11.4, -10.0, -4.72, -4.47, -4.48, -1.9, -0.0, -0.0, -2.37, -2.93, -5.4, -11.6, -12.07, 0.0, 0.0, -10.28, -10.08, -12.07, -13.75, -12.89, -10.19, -7.59, -9.58, -11.44, -12.27, -3.36, 1.77, 1.3, 1.23, 0.0, 0.0, 0.0, 2.02, 5.15, 5.15, 8.31, 8.58, 7.59, 6.6, 5.81, 6.6, 5.18, 2.81, 3.36, 8.38, 12.27, 12.37, 12.22, 11.06, 11.35, 10.59, 10.87, 9.0, 6.29, 5.29, 6.26, 6.42, 4.45, -4.01, -10.47, -9.17, -4.1, -9.17, -7.24, -9.08, -7.9, -8.22, -9.67, -11.53, -11.98, -11.37, -11.1, -10.12, -9.84, -9.48, -11.16, -0.0, -0.0, -4.24, -3.56, -3.04, -12.28, -12.14, -12.14, -11.99, -12.26, -12.11, -11.85, -11.69, -11.44, -11.2, -10.63, -10.32, -9.97, -10.0, -9.66, -9.96, -10.75, -11.18, -11.18, -5.52, -5.21, -6.45, -4.54, -4.75, -4.65, -6.97, -9.3, -11.21, -12.27, -10.18, -11.18, 0.0, 0.0, -6.64, -11.02, -12.96, -12.42, -11.5, -6.97, -8.82, -12.27, -12.96, -13.28, -10.75, -6.16, -4.37, -2.88, -1.38, 0.0, 0.0, 0.0, 3.36, 5.31, 7.59, 5.31, 4.38, 4.52, 4.52, 1.77, 1.38, 3.25, 6.9, 10.75, 12.57, 11.7, 10.59, 7.6, 6.34, 2.57, 0.0, 0.0, 0.0, 0.0, 1.65, 0.0, 0.0, -2.98, -4.24, 0.0, -6.0, -10.79, -11.28, -11.45, -11.45, -11.88, -12.52, -13.81, -13.7, -12.79, -10.91, -11.16, -12.33, -4.24, -0.0, -11.99, -7.78, -5.6, -4.24, -12.28, -12.14, -12.14, -12.14, -12.26, -12.11, -11.56, -11.69, -11.44, -11.04, -10.4, -10.43, -10.79, -10.4, -7.24, -6.44, -8.73, -8.93, -9.6, -9.6, -0.0, -5.75, -5.99, -6.7, -7.9, -9.2, -9.55, -10.18, -9.97, -8.94, -10.0, -11.62, -10.0, -7.59, -8.73, -10.84, -10.28, -10.96, -6.94, -8.22, -10.38, -11.95, -12.44, -13.44, -13.56, -12.57, -7.76, -1.78, 0.0, 0.0, 0.0, 0.0, 3.36, 5.15, 4.38, 4.38, 3.81, 3.81, 1.66, 1.43, 1.5, 6.0, 10.75, 11.06, 11.38, 10.19, 4.12, 0.0, -2.43, -4.3, -2.22, -2.02, -3.16, -4.12, -4.37, -1.63, 0.0, 4.98, 2.13, 0.0, -10.82, -12.45, -12.02, -12.47, -12.52, -13.38, -13.37, -13.33, -12.46, -10.79, -12.46, -10.37, -1.66, -3.36, -13.41, -8.85, -6.4, -5.2, -12.14, -12.14, -12.14, -12.14, -12.26, -11.87, -11.72, -11.17, -10.91, -10.65, -10.53, -10.27, -11.87, -10.88, -9.3, -8.73, -7.9, -8.59, -7.9, -2.6, 5.0, -0.0, -4.32, -6.21, -8.53, -11.2, -8.72, -7.68, -7.27, -8.58, -10.08, -10.73, -10.73, -10.38, -8.73, -9.2, -10.52, -10.73, -8.22, -7.9, -11.62, -12.04, -12.35, -13.41, -14.3, -13.86, -14.39, -7.6, -4.42, -2.15, -2.89, 0.0, 3.25, 5.15, 4.38, 3.81, 3.81, 1.61, 1.38, 1.28, 1.55, 3.69, 6.8, 15.65, 14.39, 5.37, 0.0, 0.0, -2.43, -5.48, -5.09, -3.59, -4.35, -4.95, -3.88, -1.77, 0.0, 1.83, 0.0, 0.0, -2.35, -13.41, -14.3, -13.86, -12.47, -12.31, -12.9, -12.96, -12.52, -12.58, -7.78, -3.56, -4.1, -9.48, -13.41, -8.85, -6.76, -7.02, -11.75, -11.75, -11.75, -11.75, -11.61, -11.87, -11.72, -11.33, -11.46, -10.91, -11.2, -11.04, -10.0, -10.67, -11.13, -10.6, -10.21, -10.0, -10.38, -10.18, -10.73, 0.0, -0.0, -6.45, -7.9, -8.94, -7.87, -6.95, -6.7, -9.55, -10.73, -11.18, -9.83, -10.73, -11.28, -10.4, -9.6, -8.48, 0.0, 0.0, -11.21, -12.35, -12.07, -0.0, -8.22, -12.96, -13.15, -11.44, -8.05, -4.95, 0.0, 3.58, 2.81, 2.28, 2.28, 2.02, 1.72, 0.0, 0.0, 0.0, 0.0, 2.72, 5.51, 14.39, 14.39, 5.51, 2.22, 1.78, 0.0, -4.52, -4.66, -4.5, -4.73, -3.9, -2.8, -1.53, -3.68, -2.82, -2.37, -1.19, 0.0, -6.14, -16.22, -15.34, -11.88, -9.48, -8.31, -7.69, -9.48, -0.0, -2.54, -6.44, -9.77, -12.04, -12.96, -9.77, -8.85, -8.01, -11.75, -11.75, -11.75, -11.75, -11.75, -11.61, -11.87, -11.33, -11.17, -11.46, -11.3, -11.3, -10.99, -10.65, -11.62, -10.84, -11.71, -12.18, -12.83, -13.41, -14.3, -10.43, -0.0, -5.6, -9.17, -7.59, -7.27, -5.9, -7.87, -9.64, -10.28, -9.39, -9.83, -9.83, -9.64, -10.4, -9.3, -8.22, 0.0, 0.0, -12.96, -8.85, -0.0, 10.8, 8.22, -10.4, -12.07, -12.14, -10.79, -4.24, 0.0, 7.2, 7.2, 3.16, 3.16, 0.0, 0.0, 0.0, -1.22, 0.0, 0.0, 6.64, 11.7, 14.39, 14.39, 9.92, 7.57, 4.34, 0.0, -2.45, -5.46, -5.48, -5.09, -4.23, -2.98, -2.4, -3.68, -5.0, -6.95, -6.29, -5.19, -4.95, -7.2, -12.01, -7.2, -2.43, 0.0, 0.0, 0.0, 0.0, -8.85, -10.41, -11.62, -12.27, -11.84, -11.12, -9.96, -10.79, -11.75, -11.75, -11.75, -11.75, -11.75, -11.61, -11.61, -11.44, -11.72, -11.56, -11.56, -11.56, -11.05, -10.09, -9.46, -10.4, -10.95, -11.71, -12.85, -13.86, -13.88, -0.0, 6.4, 11.06, -0.0, -3.96, -8.53, -4.71, -8.93, -10.73, -11.18, -10.73, -10.73, -10.28, -9.75, -9.6, -8.58, -11.62, -5.2, -2.93, -0.0, -0.0, -0.0, 11.62, 7.59, -0.0, -5.4, -8.85, 0.0, 0.0, 0.0, 7.4, 10.41, 11.16, 4.66, 4.66, 3.95, 0.0, 0.0, 0.0, 9.92, 16.39, 16.54, 16.09, 16.09, 13.59, 12.4, 8.01, 0.0, -2.79, -5.81, -5.63, -4.24, -3.69, -2.81, -1.92, -3.34, -7.16, -8.4, -8.68, -8.28, -5.65, -7.6, -9.92, -3.68, -3.16, -1.93, -1.51, 0.0, 0.0, -2.45, -9.67, -11.62, -11.62, -11.62, -11.12, -10.37, -11.6, -11.75, -11.75, -11.75, -11.75, -11.75, -11.75, -11.61, -11.61, -11.44, -11.44, -11.72, -11.26, -11.26, -10.73, -9.77, -9.9, -10.79, -11.97, -13.01, -13.77, -14.3, 6.6, 8.43, 8.18, 7.93, 4.38, 9.48, 11.6, 8.53, -9.33, -10.38, -9.3, -0.0, -0.0, -0.0, -0.0, -0.0, -0.0, -2.19, -1.84, -2.28, -2.82, -5.0, 0.0, 7.27, -0.0, -0.0, -5.4, -9.17, -13.41, -12.52, -13.41, 0.0, 0.0, 0.0, 0.0, 9.0, 10.2, 0.0, 12.07, 16.09, 16.54, 16.54, -0.0, -0.0, 14.22, 12.4, 11.2, 13.64, 0.0, -7.07, -5.1, -2.35, -1.64, -2.13, -3.06, -5.48, -7.82, -8.64, -9.73, -9.66, -9.61, -9.66, -10.76, -6.31, -5.16, -6.22, -5.65, -3.9, -1.77, -1.72, -3.68, -5.0, -6.45, -8.85, -7.78, -7.19, -11.99, -11.75, -11.75, -11.75, -11.75, -11.75, -11.75, -11.61, -11.61, -11.61, -11.44, -11.44, -11.44, -10.96, -10.65, -10.41, -9.5, -9.89, -10.47, -11.16, -12.39, -13.57, -0.0, -0.0, -0.0, 3.47, 6.4, 9.8, 9.8, 8.38, -0.0, -1.33, -0.0, -0.0, -0.0, -0.0, -0.0, -0.0, -0.0, -0.0, -1.52, -3.39, -4.6, -7.59, 0.0, 9.83, 0.0, -0.0, -7.9, -11.62, -12.52, -12.52, -12.07, -12.07, 0.0, 0.0, 0.0, 0.0, 0.0, 15.17, 12.39, 9.8, 13.99, 14.79, -0.0, -11.7, -14.79, 0.0, 13.28, 19.19, 22.12, 22.48, 22.35, 16.39, 0.0, -1.84, -4.66, -6.72, -9.24, -9.42, -9.0, -9.42, -11.7, -10.39, -9.33, -12.02, -10.59, -8.0, -7.22, -2.87, 0.0, 0.0, -1.39, -3.53, -3.96, -5.6, -3.14, 0.0, 0.0, -11.75, -11.75, -11.75, -11.75, -11.75, -11.75, -11.75, -11.72, -11.34, -11.34, -11.16, -11.16, -11.16, -10.65, -10.65, -9.8, -9.85, -9.48, -9.48, -9.48, -9.48, -12.39, -10.12, -0.0, -0.0, 3.36, 6.2, 5.46, 4.71, 2.91, -0.0, -1.28, -0.0, -0.0, -0.0, -0.0, -0.0, -0.0, -0.0, -0.0, -0.0, -0.0, -0.0, -0.0, 9.83, 9.83, 0.0, 0.0, -10.73, -11.18, -11.62, -11.18, -10.73, 0.0, 0.0, 0.0, 0.0, -9.8, 0.0, 12.33, 9.17, -0.0, -0.0, -10.12, -13.19, -14.42, -14.79, -0.0, 16.09, 19.08, 19.51, 21.17, 20.56, 11.2, 0.0, -3.24, -3.42, -5.65, -8.74, -7.6, -7.8, -8.74, -8.29, -5.45, -7.19, -12.37, -9.73, -5.98, 0.0, 0.0, 0.0, -2.91, -4.58, -5.6, -2.2, 0.0, -5.8, -5.8, -11.75, -11.75, -11.75, -11.75, -11.75, -11.75, -11.88, -11.5, -11.34, -11.34, -11.34, -11.16, -10.87, -11.01, -10.65, -10.41, -9.5, -9.53, -9.48, -8.97, -8.23, -9.48, -12.39, -10.43, -0.0, -0.0, 3.36, 4.38, 3.25, 1.66, -0.0, -0.0, -0.0, -0.0, -0.0, 2.17, 2.49, 4.6, 4.8, 3.82, 2.28, -0.0, -0.0, 4.4, 6.95, 6.64, 6.95, 7.27, 0.0, 0.0, 0.0, 0.0, 0.0, 0.0, 0.0, 0.0, 0.0, 0.0, 0.0, 11.06, 12.07, 0.0, 0.0, 0.0, -12.07, -12.96, -12.96, 0.0, 16.09, 19.08, 19.19, 18.41, 18.78, 16.79, 0.0, 0.0, 13.59, 13.28, 0.0, 0.0, 0.0, 0.0, -3.33, -1.83, -3.32, -2.19, -9.48, -4.1, 0.0, 0.0, -1.73, -5.11, -4.81, -2.2, -3.04, -5.4, -8.85, -8.85, -11.75, -11.75, -11.75, -11.75, -11.75, -11.5, -11.88, -11.5, -11.34, -11.34, -11.07, -11.07, -11.23, -10.94, -10.35, -10.41, -9.8, -9.5, -9.53, -9.06, -8.49, -7.69, -7.44, -7.69, 0.0, 0.0, 0.0, -0.0, -0.0, -0.0, -0.0, -0.0, -0.0, -0.0, 4.96, 4.2, 3.11, 3.98, 2.49, 2.39, -0.0, -0.0, -0.0, 4.0, 4.4, 6.95, 7.27, 7.27, 7.27, 7.27, 7.27, 7.59, -0.0, -0.0, 0.0, 0.0, 0.0, 0.0, 8.53, 12.96, 12.52, 11.18, 10.73, 10.73, 10.73, 10.28, 0.0, 0.0, 12.39, 12.33, 15.49, -0.0, 0.0, -21.01, -0.0, 5.94, 10.66, 13.91, 13.91, 13.28, 17.88, 0.0, 0.0, -1.89, -3.47, -1.91, 0.0, 0.0, 0.0, -3.01, -5.04, -5.28, -5.6, -5.11, -5.8, -7.54, -10.41, -10.41, -11.75, -11.75, -11.75, -11.75, -11.5, -11.5, -11.5, -11.88, -11.5, -11.07, -11.07, -11.44, -11.16, -10.94, -10.35, -10.06, -10.41, -10.13, -9.5, -8.79, -8.3, -7.44, -6.9, -4.71, 0.0, 0.0, -3.69, -10.75, -10.75, -0.0, -0.0, -0.0, -0.0, 4.15, 6.87, 5.29, 3.11, -0.0, -0.0, -0.0, -0.0, -0.0, -0.0, -0.0, -0.0, -0.0, -0.0, -0.0, 7.27, 7.27, 7.27, 7.27, 7.27, -0.0, 0.0, 0.0, 0.0, 7.59, 7.9, 7.9, 12.07, 11.62, 7.59, 9.6, 8.93, 8.18, 9.39, 0.0, -0.0, -0.0, -9.0, -16.37, -18.66, -17.85, -4.23, -0.0, 3.51, 4.55, 6.22, -0.0, 0.0, -8.0, -8.0, -6.0, -6.21, -6.94, -7.54, 0.0, -5.28, -7.58, -5.81, -3.56, -5.98, -7.02, -6.87, -8.1, -10.01, -10.01, -11.75, -11.75, -11.75, -11.75, -11.5, -11.5, -11.5, -11.88, -11.62, -11.44, -11.07, -11.16, -11.16, -10.94, -10.65, -11.09, -9.71, -10.06, -8.53, -7.8, -7.25, -7.98, -7.69, -6.0, -5.6, -4.38, -5.8, -9.8, -11.99, -12.39, -4.38, -0.0, -0.0, 4.48, 6.2, 4.8, 1.84, -0.0, -1.84, -2.6, -2.39, -2.49, -0.0, -0.0, -0.0, -0.0, -0.0, -0.0, -0.0, 7.27, 7.27, 7.27, 7.27, 7.27, 10.28, 10.28, 0.0, 0.0, 0.0, 0.0, 0.0, 11.62, 10.0, 8.18, 7.68, 7.51, 6.64, 0.0, -7.59, -14.3, -17.88, -20.12, -19.34, -23.32, -12.01, -0.0, -0.0, -3.24, -4.12, -12.33, -16.48, -13.95, -11.38, -10.01, -10.09, -10.59, -10.47, -9.17, -8.23, -9.48, -9.16, -6.65, -6.4, -8.22, -10.52, -9.16, -10.82, -10.82, -11.75, -11.75, -11.75, -11.5, -11.5, -11.5, -11.5, -11.88, -11.62, -11.62, -11.16, -11.16, -11.16, -10.94, -10.94, -10.06, -9.71, -9.66, -10.25, -9.42, -8.51, -9.39, -9.82, -9.8, -9.96, -9.17, -10.37, -11.99, -13.59, -12.96, -11.2, -3.96, -0.0, 2.93, 3.68, 4.23, 2.33, -0.0, -1.07, -1.14, -1.33, -0.0, -0.0, -0.0, -0.0, -0.0, -0.0, -0.0, 7.27, 6.95, 6.95, 7.27, 7.59, 7.9, 9.83, 9.83, 7.9, 0.0, 0.0, 0.0, 0.0, 7.59, 7.59, 8.93, 7.27, 7.27, 4.6, 0.0, 0.0, 0.0, 0.0, 0.0, 0.0, -2.19, -8.28, -9.17, -14.39, -8.93, -11.7, -16.99, -15.34, -14.79, -13.2, -11.99, -12.03, -10.47, -9.48, 0.0, -8.44, -7.51, -10.47, -9.48, -8.54, -10.37, -12.11, -12.16, -12.51, -12.51, -11.75, -11.75, -11.75, -11.5, -11.5, -11.5, -11.88, -11.88, -11.62, -11.62, -11.16, -11.16, -11.16, -11.16, -10.94, -10.35, -10.06, -10.01, -10.24, -10.94, -10.3, -10.75, -11.5, -11.2, -11.93, -12.27, -12.03, -12.79, -12.07, -11.62, -11.03, -10.4, -5.2, -0.0, 2.82, 2.19, 1.84, -0.0, -0.0, -0.0, -0.0, -0.0, -0.0, -0.0, -0.0, -0.0, -0.0, -0.0, 7.27, 7.27, 6.95, 7.27, 7.59, 10.0, 10.73, 10.28, 10.0, 10.0, 0.0, 0.0, 7.9, 7.9, 5.95, 3.53, 3.25, 2.6, 3.39, 8.53, 10.79, 9.8, 9.39, 5.8, 3.29, 0.0, -7.3, -12.33, -15.99, -15.99, -9.17, -12.65, -15.65, -14.53, -11.52, -8.05, -6.2, 0.0, 11.99, 11.16, 2.2, 0.0, -8.01, -10.02, -10.12, -10.91, -12.98, -13.19, -13.19, -13.19, -11.75, -11.75, -11.75, -11.5, -11.5, -11.5, -11.88, -11.62, -11.62, -11.62, -11.16, -10.88, -10.88, -11.16, -10.94, -10.94, -10.35, -10.65, -11.01, -12.05, -11.52, -11.25, -10.58, -10.98, -11.44, -11.29, -12.42, -12.71, -12.07, -11.45, -11.45, -10.4, -8.22, -0.0, -0.0, -0.0, -0.0, -0.0, -0.0, -0.0, -0.0, -0.0, -0.0, 2.37, 2.19, 2.6, -0.0, -0.0, -0.0, 7.27, 7.27, 7.59, 7.59, 10.0, 10.73, 11.18, 11.62, 12.52, 11.62, -0.0, 4.6, 7.59, 6.2, 3.53, 3.53, 6.2, 5.2, 5.4, 12.3, 13.99, 12.52, 14.22, 18.95, 17.07, -8.54, -10.99, -13.59, -15.02, -17.88, -11.38, -15.18, -16.22, -14.39, -6.8, 0.0, 11.99, 9.48, 0.0, -4.05, -2.16, -6.08, -9.48, -9.5, -7.93, -12.79, -13.57, -12.65, -12.65, -11.75, -11.75, -11.75, -11.5, -11.5, -11.5, -11.88, -11.62, -11.62, -11.62, -11.72, -11.23, -11.23, -10.88, -11.16, -10.94, -10.7, -10.7, -11.04, -11.73, -11.15, -10.24, -9.62, -10.37, -10.38, -10.36, -11.28, -12.39, -12.96, -11.2, -10.8, -10.4, -8.22, -8.22, -0.0, -0.0, -0.0, -0.0, -0.0, -0.0, -0.0, 2.82, 2.82, 3.68, 6.45, 6.2, 4.8, 6.64, 6.64, 7.27, 7.27, 7.59, 7.59, 10.0, 10.73, 9.6, 10.6, 12.96, 12.96, 0.0, -0.0, 7.27, 8.22, 8.22, 9.3, 10.0, 10.4, 7.9, 8.22, 12.52, 13.86, 8.0, 26.37, 0.0, -8.05, -8.91, -10.41, -11.54, -12.01, -16.54, -12.39, -15.18, -15.65, -15.65, -14.75, -12.39, -11.53, -11.17, -11.44, -9.49, -7.38, -9.48, -10.12, 6.4, 14.3, -6.4, -11.9, -11.9, -11.75, -11.75, -11.75, -11.5, -11.5, -11.5, -11.88, -11.62, -11.62, -11.62, -11.72, -11.23, -11.23, -11.23, -10.88, -10.65, -10.99, -10.73, -10.73, -10.77, -10.46, -9.48, -8.85, -9.69, -10.03, -10.47, -10.09, -10.82, -12.72, -12.96, -11.2, -10.8, -8.22, -7.9, -0.0, -0.0, -0.0, -0.0, -0.0, -0.0, -0.0, 3.68, 3.68, 8.22, 8.22, 9.3, 8.85, 11.18, 10.73, 11.18, 11.62, 11.18, 7.59, 9.6, 9.2, 9.2, 9.75, 11.45, 12.96, 8.22, 0.0, 0.0, 0.0, 11.62, 10.0, 11.71, 12.07, 12.52, 11.18, 0.0, 0.0, -0.0, 25.93, 28.16, 0.0, -12.72, -11.5, -10.12, -8.85, -6.8, -13.86, -12.79, -13.7, -14.11, -14.75, -14.75, -14.31, -13.7, -13.03, -12.11, -9.21, -10.73, 0.0, 12.39, 0.0, -4.52, -7.69, -7.69, -11.75, -11.75, -11.75, -11.5, -11.5, -11.5, -11.62, -11.62, -11.62, -11.35, -11.72, -11.23, -11.23, -11.23, -11.23, -11.23, -10.99, -10.65, -10.39, -10.43, -10.13, -9.8, -9.48, -9.17, -9.64, -9.69, -9.48, -10.18, -9.48, -12.72, -12.96, -12.96, -8.85, -8.22, -0.0, -0.0, -0.0, -0.0, -0.0, -0.0, -0.0, 5.2, 5.0, 10.0, 10.0, 10.73, 11.62, 10.73, 9.83, 9.83, 10.73, 12.52, 10.73, 7.59, 9.2, 9.2, 7.27, 6.95, 8.22, 8.85, 0.0, 0.0, -6.95, 10.73, 11.28, 11.71, 12.07, 12.07, 12.07, 11.62, -9.48, -15.65, -15.49, 0.0, 24.79, 0.0, -9.92, -12.52, -10.12, -7.44, -9.8, -13.86, -12.45, -13.23, -14.64, -14.75, -14.68, -14.13, -13.97, -14.53, -7.6, 0.0, 6.4, 0.0, 0.0, -3.36, -4.38, -4.38, -11.75, -11.75, -11.75, -11.75, -11.5, -11.5, -11.5, -11.62, -11.62, -11.35, -11.72, -11.44, -11.23, -10.94, -11.23, -10.88, -10.65, -10.65, -10.39, -10.11, -10.13, -9.8, -9.8, -9.06, -9.48, -9.17, -9.17, -9.17, -9.17, -10.37, -12.3, -12.96, -12.52, -12.07, -0.0, -0.0, -0.0, -0.0, -0.0, -0.0, 7.9, 8.22, 11.18, 11.18, 10.73, 10.73, 11.03, 9.2, 9.33, 8.18, 10.6, 10.6, 12.52, 12.07, 10.0, 9.6, 4.6, 4.4, -0.0, 0.0, 0.0, 0.0, 0.0, 6.95, 11.18, 11.45, 12.14, 12.52, 12.96, 12.52, -8.53, -12.79, -9.42, 0.0, 25.87, 26.37, 21.9, -9.92, -8.22, -6.45, -9.48, -13.86, -15.2, -13.44, -14.11, -15.65, -15.05, -14.31, -14.75, -14.42, -16.99, 0.0, 0.0, -3.07, -4.38, -4.52, -3.36, -3.36, -11.75, -11.75, -11.75, -11.75, -11.5, -11.5, -11.5, -11.24, -11.62, -11.35, -11.72, -11.44, -11.23, -10.94, -10.94, -10.65, -10.65, -10.39, -10.39, -10.11, -9.8, -9.8, -9.13, -9.1, -8.59, -8.67, -8.61, -8.54, -9.17, -8.3, -9.17, -7.82, -7.51, -6.7, -5.4, 0.0, 0.0, 0.0, 0.0, 0.0, 5.0, 8.22, 6.45, 9.6, 7.27, 9.3, 7.9, 5.7, 5.46, 5.46, 8.93, 9.3, 8.55, 9.75, 11.18, 7.59, 4.8, -0.0, -0.0, -0.0, 0.0, 3.53, 2.71, 5.95, 11.2, 11.62, 12.07, 12.96, 0.0, -12.96, -11.6, -11.99, -10.43, -7.6, 19.52, 23.38, 21.99, 19.67, -4.4, -6.95, -11.03, -12.96, 0.0, -0.0, -13.44, -14.75, -15.65, -7.0, -0.0, -8.18, -14.9, -16.22, -8.97, -9.17, -8.43, -6.4, -6.4, -6.4, -11.36, -11.36, -11.75, -11.75, -11.5, -11.5, -11.34, -11.07, -11.44, -11.16, -11.35, -11.23, -11.23, -10.94, -10.94, -10.65, -10.3, -10.06, -10.06, -9.78, -9.48, -9.15, -9.13, -8.73, -8.66, -8.59, -8.21, -7.62, -7.18, -6.94, -6.63, -5.99, -4.75, -3.82, -2.37, -2.82, 0.0, 0.0, 0.0, 2.6, 2.71, 5.2, 5.0, 5.29, 5.06, 4.8, 3.25, 4.6, 4.4, 5.7, 6.2, 7.59, 8.93, 8.55, 10.18, 8.22, -0.0, -0.0, -0.0, -0.0, 0.0, 0.0, 2.71, 6.7, 10.4, 12.52, 13.41, 0.0, -12.07, -12.96, -12.79, -10.12, -10.47, -13.15, 3.69, 10.12, 19.71, 19.22, 13.86, 0.0, -11.18, -11.62, 13.41, 8.85, 0.0, -13.86, -13.19, -3.79, -8.68, -12.27, -14.47, -15.65, -12.92, -13.05, -11.7, -10.02, -9.73, -9.73, -11.22, -11.22, -11.22, -11.22, -11.34, -11.34, -11.34, -11.07, -11.07, -11.16, -11.16, -11.23, -11.23, -10.94, -10.69, -10.65, -10.06, -10.06, -9.78, -9.78, -9.48, -8.85, -8.49, -9.13, -8.73, -8.01, -7.38, -7.19, -6.72, -6.44, -5.4, -4.9, -4.24, -4.24, -3.19, -1.64, 0.0, 0.0, 0.0, 1.76, 1.84, 3.53, 4.15, 3.82, 6.7, 5.1, 3.7, 3.11, 2.02, 2.49, 6.2, 5.95, 7.27, 7.27, 7.59, 10.73, -0.0, -0.0, -0.0, -0.0, 0.0, 0.0, 0.0, 0.0, 12.07, 12.96, 13.86, 12.52, -0.0, -10.4, -13.86, -6.6, -5.46, -10.47, -14.3, -4.45, -0.0, 8.6, 18.78, 16.99, 0.0, -10.28, 0.0, 12.07, 12.96, -0.0, -7.44, -10.43, -14.11, -14.99, -14.55, -15.2, -15.43, -13.39, -13.05, -13.05, -11.7, -11.7, -11.22, -11.22, -11.22, -11.22, -10.96, -11.34, -11.07, -11.07, -11.07, -10.8, -11.16, -11.16, -11.23, -10.99, -10.36, -10.06, -10.06, -9.78, -9.46, -9.17, -9.17, -8.85, -8.49, -8.1, -7.67, -7.19, -7.01, -6.79, -5.93, -5.6, -5.18, -4.12, -4.48, -3.68, -2.52, -1.28, 0.0, 0.0, 0.0, 1.33, 1.52, 1.52, 3.07, 3.39, 5.0, 5.2, 4.15, 2.49, 1.69, 2.71, 3.53, 3.25, 7.27, 7.27, 7.59, 4.8, 6.95, 7.9, -0.0, -0.0, -0.0, 0.0, 0.0, -0.0, 10.8, 11.87, 13.41, 14.3, 11.18, -9.83, -10.73, -10.73, -6.34, -4.88, -8.77, -15.38, -18.66, -0.0, 12.96, 20.12, 0.0, -12.52, 0.0, 0.0, 11.62, 12.79, -0.0, -12.79, -14.75, -14.75, -14.55, -15.34, -15.65, -14.84, -14.79, -14.19, -14.19, -14.19, -10.83, -10.83, -10.83, -11.22, -10.96, -10.96, -10.7, -11.07, -11.07, -10.8, -10.8, -11.16, -10.65, -10.65, -10.06, -9.72, -9.46, -9.46, -9.17, -9.17, -8.85, -8.49, -8.49, -8.1, -7.67, -7.19, -6.67, -6.21, -5.6, -4.93, -4.49, -3.68, -3.82, -3.18, -2.08, -1.01, 0.0, 0.0, 0.0, 0.0, 1.18, 1.33, 1.33, 1.52, 3.39, 2.93, 1.98, 2.6, 2.82, 4.15, 2.6, 2.49, 2.49, 4.8, 4.8, 4.8, 3.25, 8.22, 4.8, -0.0, -3.53, -8.22, -5.4, 5.2, 8.53, 8.22, 8.22, 0.0, 0.0, -4.4, -7.89, -11.02, -11.06, -2.52, -3.45, -7.4, -10.33, -14.75, -0.0, 0.0, 0.0, -19.22, 0.0, 0.0, 0.0, 14.3, 10.12, 10.12, -0.0, -14.75, -14.75, -14.75, -15.2, -15.34, -15.04, -15.07, -15.19, -15.19, -10.68, -10.68, -10.68, -10.68, -10.79, -10.79, -10.51, -10.51, -10.51, -10.59, -10.59, -10.59, -10.59, -9.72, -9.72, -9.46, -9.46, -9.17, -8.85, -8.54, -8.2, -8.49, -8.1, -8.1, -7.67, -7.19, -6.44, -5.68, -5.8, -3.91, -4.21, -3.44, -3.68, -2.71, -1.84, -0.97, -0.93, 0.0, 0.0, 0.0, 0.0, 0.0, 1.18, 1.33, 1.33, 0.0, 1.39, 2.6, 2.6, 3.07, 3.39, 2.02, 2.1, 2.1, 2.49, 3.25, 3.53, 10.0, 4.8, -0.0, -2.93, -6.45, -0.0, 7.9, 8.22, 7.9, 7.27, 0.0, -8.85, -6.7, -8.23, -9.97, -13.86, -4.55, 0.0, -3.86, -6.9, -5.0, 0.0, 0.0, 0.0, 0.0, 0.0, 0.0, 0.0, 0.0, 15.65, 10.43, 10.12, 6.2, -0.0, 0.0, -14.75, -14.75, -14.42, -15.18, -15.07, -15.07, -10.3, -10.3, -10.3, -10.68, -10.41, -10.41, -10.51, -10.51, -10.51, -10.23, -10.01, -10.01, -10.01, -10.01, -9.42, -9.13, -8.85, -7.95, -8.24, -7.89, -7.89, -7.51, -7.51, -7.4, -6.94, -6.94, -6.44, -5.89, -5.1, -4.81, -3.91, -3.32, -3.32, -2.53, -1.84, -1.77, -0.89, -0.93, 0.0, 0.0, 0.0, 0.0, 0.0, 0.0, 0.0, 0.0, 0.0, 1.14, 2.6, 2.6, 1.45, 1.45, 1.84, 1.76, 2.02, 2.1, 2.1, 4.8, 4.6, -0.0, -2.95, -0.0, 5.2, 7.59, 7.9, 7.9, 9.6, 0.0, -5.2, -5.8, -3.82, 0.0, -11.03, -12.87, -8.91, -4.65, -6.6, 0.0, 7.44, 2.81, 2.0, 0.0, 0.0, 0.0, -1.65, -2.05, -5.09, 6.8, 10.12, 9.48, 9.17, 11.99, 0.0, -13.57, -14.03, -14.61, -14.61, -14.61, -10.13, -10.13, -10.13, -9.86, -9.86, -10.23, -9.94, -9.94, -9.66, -9.66, -10.01, -9.66, -9.42, -9.42, -8.82, -8.53, -8.24, -8.24, -7.61, -7.89, -7.51, -7.51, -7.09, -7.09, -6.63, -6.44, -6.44, -5.89, -5.02, -4.48, -3.91, -3.19, -3.19, -2.53, -1.71, -1.77, -0.89, -0.89, -0.93, 0.0, 0.0, 0.0, 0.0, 0.0, 0.0, 0.0, 0.0, 0.0, 1.18, 1.33, 1.33, 1.39, 1.52, 1.45, 1.45, 0.0, 0.0, 0.0, 0.0, -0.0, -0.0, -0.0, 7.9, 7.9, 7.27, 4.8, 4.8, -0.0, 0.0, 0.0, 0.0, 0.0, -5.6, -10.75, -15.42, -11.6, 0.0, 11.06, 8.87, 5.81, 3.49, 0.0, 0.0, -2.11, -2.05, -3.49, -5.09, 0.0, 12.79, 11.16, 10.41, 11.2, 8.85, -13.41, -13.01, -14.55, -14.61, -14.61, -9.76, -9.76, -9.76, -9.86, -9.86, -9.59, -9.59, -9.94, -9.42, -9.42, -9.42, -9.42, -9.08, -8.82, -8.22, -8.53, -8.24, -7.9, -7.61, -7.24, -7.51, -7.09, -7.09, -6.63, -6.63, -6.14, -5.6, -5.6, -5.02, -4.39, -3.82, -3.68, -2.99, -2.44, -2.44, -1.64, -1.77, -0.89, -0.86, 0.0, 0.0, 0.0, 0.0, 0.0, 0.0, 0.0, 0.0, 0.0, 0.0, 0.0, 0.0, 0.0, 0.0, 0.0, 0.0, 0.0, 0.0, 0.0, 0.0, 0.0, 3.11, 8.22, 7.59, 5.0, 5.0, -0.0, -0.0, -0.0, -7.9, -12.07, -12.52, -13.86, -6.4, -7.6, -10.12, -6.79, 2.55, 10.17, 9.74, 8.0, 3.78, 0.0, 0.0, -2.5, 0.0, -1.83, 0.0, 0.0, 0.0, 12.52, 12.52, 11.87, 8.85, 0.0, -12.96, -12.71, -14.6, -14.6, -9.58, -9.58, -9.58, -9.3, -9.3, -9.37, -9.37, -9.37, -9.08, -9.08, -8.82, -8.82, -8.82, -8.22, -8.22, -8.22, -7.9, -7.9, -7.54, -7.24, -6.84, -6.84, -6.63, -6.63, -6.14, -6.14, -5.6, -5.02, -5.02, -4.39, -3.73, -3.6, -2.99, -2.19, -2.19, -1.58, -1.58, -0.8, -0.86, -0.86, 0.0, 0.0, 0.0, 0.0, 0.0, 0.0, 0.0, 0.0, 0.0, 0.0, 0.0, 0.0, 0.0, 0.0, 0.0, 0.0, 0.0, 0.0, 0.0, 0.0, 0.0, 5.36, 3.39, 3.25, -0.0, -0.0, -0.0, -0.0, -0.0, -5.0, -12.96, -12.96, -4.95, -1.69, -3.16, -3.12, 1.58, 6.72, 7.33, 3.44, 2.12, 0.0, 0.0, 0.0, 0.0, 2.54, 3.14, 3.04, 3.04, 4.1, 5.8, 12.96, 12.96, 12.96, 0.0, -12.96, -13.67, -13.67, -9.21, -9.21, -9.58, -9.3, -9.3, -9.02, -9.02, -9.12, -8.82, -8.82, -8.82, -8.5, -8.22, -7.91, -7.91, -7.91, -7.54, -7.54, -7.54, -7.14, -6.84, -6.4, -6.4, -5.92, -5.65, -5.14, -5.14, -4.84, -4.84, -4.24, -3.6, -3.6, -2.93, -2.99, -2.19, -2.19, -1.48, -1.58, -0.8, -0.86, -0.82, 0.0, 0.0, 0.0, 0.0, 0.0, 0.0, 0.0, 0.0, 0.0, 0.0, 0.0, 0.0, 0.0, 0.0, 0.0, 0.0, 0.0, 0.0, 0.0, 0.0, 6.64, 3.25, 3.11, 3.39, 3.53, 3.11, 3.25, -0.0, -4.8, -8.22, -9.17, 0.0, 0.0, 0.0, -2.94, -3.98, -4.88, -5.88, -6.42, -2.66, 0.0, 0.0, 0.0, 2.93, 4.81, 4.24, 4.1, 2.13, 2.54, 0.0, 0.0, 0.0, 0.0, 0.0, -12.96, -13.41, -13.41, -9.21, -9.21, -9.21, -8.94, -8.73, -8.78, -8.78, -8.78, -8.5, -8.5, -8.22, -7.9, -7.6, -7.91, -7.61, -7.26, -7.26, -7.54, -7.14, -7.14, -7.14, -6.4, -6.4, -5.92, -5.92, -5.14, -5.14, -4.6, -4.6, -4.02, -3.6, -3.6, -2.93, -2.82, -2.14, -2.19, -1.48, -1.48, -1.58, -0.76, -0.82, -0.82, 0.0, 0.0, 0.0, 0.0, -0.79, -0.85, -0.93, -1.07, -1.02, 0.0, 0.0, 0.0, 0.0, 0.0, 0.0, -1.16, -1.33, -1.39, -1.93, 0.0, 7.59, 2.97, 4.4, 4.8, 3.39, -0.0, -0.0, -5.0, -5.0, -9.17, -14.75, 0.0, 0.0, 0.0, -5.18, -9.33, -11.8, -10.8, -7.6, -2.98, 0.0, 0.0, 5.15, 4.24, 5.46, 3.81, 3.68, 1.9, 0.0, 0.0, -6.0, -9.48, -9.48, -9.17, -11.99, -13.41, -9.21, -9.21, -9.21, -8.73, -8.73, -8.45, -8.45, -8.52, -8.22, -8.22, -7.6, -7.6, -7.6, -7.32, -7.26, -7.26, -7.26, -6.87, -7.14, -7.14, -6.7, -6.4, -5.92, -5.92, -5.92, -5.4, -5.4, -4.6, -4.6, -4.02, -4.24, -3.6, -3.6, -2.93, -2.82, -2.28, -2.19, -2.19, -1.48, -1.52, -0.82, -0.79, -0.85, -0.82, 0.0, 0.0, -0.82, -1.76, -2.02, -1.02, -1.09, -1.09, -1.04, -1.04, -1.04, -1.04, -1.11, -1.11, -1.33, -1.33, -1.62, -2.97, 7.6, 4.4, 4.6, 4.6, -0.0, -0.0, -0.0, -0.0, -0.0, -10.4, -13.86, -13.02, 0.0, 6.51, 0.0, -7.98, -9.5, -8.66, -6.0, -2.63, 0.0, 3.68, 4.55, 4.87, 4.52, 3.2, 1.58, 1.53, 0.0, -2.72, -7.69, -12.39, -11.99, -11.99, -11.6, -11.99, -8.65, -8.65, -9.01, -8.73, -8.73, -8.73, -8.19, -8.19, -7.9, -7.6, -7.6, -7.6, -7.32, -6.98, -6.98, -7.26, -6.87, -6.87, -6.87, -6.45, -6.7, -5.92, -5.92, -5.92, -5.4, -5.4, -5.4, -4.84, -4.84, -4.24, -4.24, -3.47, -3.47, -2.82, -2.82, -2.99, -2.28, -2.19, -2.34, -1.52, -1.63, -1.56, -1.56, -1.69, -1.5, -1.11, -0.79, -1.69, -1.93, -1.93, -2.04, -2.04, -2.04, -0.99, -0.99, -0.99, -1.05, -2.17, -2.17, -2.58, -2.58, -3.49, 0.0, 6.95, 4.4, -0.0, -0.0, -0.0, -0.0, -0.0, -5.2, -11.62, -12.96, -13.15, -7.0, 6.5, 9.61, -8.62, -8.31, -6.67, -5.48, 0.0, 3.36, 4.58, 3.53, 3.65, 2.56, 1.34, 1.34, 0.0, 0.0, 0.0, -6.2, -13.15, -13.41, -12.96, -11.6, -11.6, -8.65, -8.65, -8.65, -8.65, -8.38, -8.73, -8.19, -8.19, -8.19, -7.6, -7.6, -7.6, -6.98, -6.98, -6.98, -6.61, -6.87, -6.87, -6.87, -6.45, -6.16, -5.7, -5.7, -5.4, -5.4, -5.4, -4.84, -4.84, -4.84, -4.24, -4.08, -3.47, -3.47, -3.68, -2.99, -2.99, -2.28, -2.28, -2.34, -1.58, -1.63, -1.63, -1.56, -1.56, -2.41, -1.52, -1.45, -0.82, -1.68, -1.84, -1.84, -1.94, -1.94, -1.94, -1.84, -1.84, -1.95, -2.06, -2.17, -2.17, -2.58, -2.83, -3.8, -0.0, 4.4, 6.95, 7.27, -0.0, -0.0, -0.0, -5.2, -11.18, -12.96, -12.27, -13.99, -16.09, 0.0, 0.0, 0.0, 0.0, 4.55, 8.0, 6.88, 4.6, 3.02, 2.28, 1.25, 0.0, 0.0, 0.0, 0.0, -1.58, -4.38, -11.16, -12.96, -12.3, -12.3, -12.3, -8.65, -8.65, -8.65, -8.65, -8.15, -8.15, -8.15, -7.86, -7.59, -7.3, -7.3, -6.98, -6.98, -6.98, -6.98, -6.61, -6.61, -6.87, -6.45, -6.45, -5.7, -5.7, -5.7, -5.2, -5.2, -5.2, -4.66, -4.66, -4.66, -4.08, -4.08, -3.47, -3.68, -3.68, -2.99, -2.99, -2.99, -2.44, -2.44, -2.34, -2.51, -2.41, -2.41, -2.41, -2.41, -2.51, -1.63, -1.5, -1.54, -1.6, -1.6, -1.75, -1.94, -1.94, -1.84, -2.06, -1.95, -1.95, -2.06, -2.17, -3.14, -4.0, -4.96, 0.0, 6.95, 6.95, 4.6, 4.8, -0.0, -0.0, -5.0, -10.18, -11.62, -12.3, -12.72, -14.9, -12.64, 0.0, 6.05, 13.53, 14.82, 13.49, 8.32, 6.16, 3.32, 1.15, 0.0, 0.0, 0.0, -1.42, -1.38, -3.01, -5.15, -13.41, -12.96, -12.96, -12.96, -12.96, -8.65, -8.65, -8.44, -8.15, -8.15, -8.15, -8.15, -7.86, -7.59, -7.59, -7.3, -6.98, -6.98, -6.98, -6.61, -6.61, -6.61, -6.61, -6.45, -6.45, -5.7, -5.7, -5.7, -5.2, -5.2, -5.2, -4.66, -4.66, -4.66, -4.08, -4.08, -3.68, -3.68, -3.68, -2.99, -2.99, -3.19, -3.19, -2.44, -2.51, -2.51, -2.41, -2.41, -2.41, -2.41, -2.41, -2.41, -1.56, -1.62, -1.62, -1.68, -2.47, -2.57, -2.83, -2.83, -2.98, -2.98, -2.83, -2.83, -2.98, -2.98, -3.52, -5.36, 0.0, 7.59, 6.95, 4.4, 5.21, 4.6, -0.0, -8.22, -10.28, -11.18, -11.87, -11.16, -10.12, 0.0, 0.0, 4.47, 14.16, 19.33, 17.17, 12.71, 6.31, 2.79, 1.51, 0.0, 0.0, -1.47, -3.25, -2.35, -8.85, -12.3, -12.96, -12.3, -12.14, -12.14, -12.14, -8.44, -8.44, -8.44, -8.15, -8.15, -8.15, -8.15, -7.59, -7.59, -7.59, -7.59, -6.98, -6.98, -6.7, -6.61, -6.61, -6.61, -6.61, -6.2, -6.45, -5.7, -5.7, -5.7, -5.2, -5.2, -5.2, -4.66, -4.66, -4.66, -4.08, -4.08, -4.32, -3.68, -3.68, -3.68, -2.99, -3.19, -3.19, -3.19, -2.61, -2.51, -2.51, -2.51, -2.41, -2.41, -2.41, -2.41, -2.49, -2.49, -2.39, -2.59, -2.47, -2.7, -2.57, -2.83, -2.69, -2.98, -2.83, -2.83, -2.83, -2.98, -3.35, -5.59, -6.64, 6.32, 7.27, 6.95, 2.83, 3.11, -0.0, -9.2, -10.73, -11.62, -11.62, -10.73, -4.38, 0.0, 2.28, 5.65, 11.8, 18.02, 17.93, 12.1, 7.67, 5.29, 2.05, 0.0, -1.78, -3.93, -6.2, -4.24, -8.53, -12.52, -11.87, -10.41, -10.04, -10.04, -10.04, -8.08, -8.08, -8.08, -7.81, -7.81, -7.55, -7.55, -7.27, -7.27, -7.59, -7.59, -7.28, -6.98, -6.98, -6.34, -6.61, -6.61, -6.61, -6.2, -6.2, -5.98, -5.7, -5.7, -5.2, -5.2, -5.2, -4.66, -4.66, -4.66, -4.08, -4.32, -4.32, -3.68, -3.68, -3.68, -2.99, -3.19, -3.19, -3.19, -3.07, -3.29, -3.29, -3.29, -3.29, -3.16, -3.16, -3.39, -3.25, -2.49, -2.71, -2.59, -2.47, -2.47, -3.32, -3.45, -3.45, -3.8, -2.83, -2.83, -2.83, -2.83, -3.8, -4.71, -6.32, 6.32, 6.95, 6.64, 4.2, -0.0, -0.0, -9.2, -10.6, -11.62, -12.27, -10.79, -4.24, 0.0, 2.5, 8.93, 13.46, 14.26, 13.06, 12.99, 13.09, 11.96, 5.8, 3.07, 0.0, 0.0, -5.8, 0.0, 0.0, -8.53, -8.53, -10.04, -10.04, -10.04, -10.04, -8.08, -8.08, -8.08, -8.08, -7.55, -7.55, -7.55, -7.55, -7.27, -7.27, -7.27, -6.97, -6.98, -6.98, -6.98, -6.34, -6.61, -6.2, -6.2, -6.2, -6.2, -5.98, -5.7, -5.2, -5.2, -5.2, -4.66, -4.66, -4.66, -4.32, -4.32, -4.32, -3.68, -3.68, -3.68, -3.68, -3.19, -3.07, -3.07, -3.07, -3.29, -3.29, -3.29, -3.29, -3.29, -3.16, -3.39, -3.25, -3.51, -3.51, -3.36, -3.36, -3.21, -3.06, -3.32, -3.45, -3.45, -3.6, -3.6, -3.6, -3.4, -3.6, -4.71, -6.32, 0.0, 4.6, 4.4, 4.2, -0.0, -0.0, -0.0, -7.59, -11.03, -12.07, -12.52, -9.48, 0.0, 10.12, 12.65, 13.99, 11.7, 11.16, 16.7, 18.84, 18.97, 15.74, 14.75, 12.96, 0.0, 0.0, 8.85, 8.53, 5.2, -5.0, -7.9, -8.93, -8.93, -8.93, -8.08, -8.08, -8.08, -8.08, -7.55, -7.55, -7.55, -7.55, -7.27, -7.27, -6.97, -6.97, -6.97, -6.98, -6.98, -6.63, -6.63, -6.61, -6.2, -6.2, -6.2, -5.75, -5.75, -5.75, -5.0, -5.0, -5.0, -4.92, -4.92, -4.92, -4.32, -4.32, -4.32, -3.68, -3.68, -3.91, -3.76, -3.76, -3.07, -3.07, -3.29, -3.29, -3.29, -3.29, -3.29, -3.53, -3.39, -3.39, -3.51, -3.51, -3.36, -3.36, -3.49, -3.32, -4.0, -3.45, -3.45, -3.27, -3.6, -3.6, -3.6, -3.4, -4.46, -6.79, -0.0, -0.0, -0.0, 4.2, 4.2, 6.95, 8.8, 7.27, -7.9, -10.8, -12.52, -12.96, 0.0, 13.41, 13.57, 13.19, 11.06, 12.71, 16.09, 21.23, 23.77, 20.6, 10.52, 9.2, 11.62, 12.52, 8.53, 9.3, 7.59, -0.0, -5.46, -5.21, -5.21, -5.21, -8.37, -8.0, -8.0, -7.73, -7.85, -7.55, -7.55, -7.55, -7.27, -7.27, -6.97, -6.97, -6.97, -6.97, -6.98, -6.63, -6.63, -6.63, -6.2, -6.2, -6.2, -5.75, -5.75, -5.75, -5.26, -5.26, -5.26, -4.73, -4.73, -4.73, -4.32, -4.32, -4.32, -4.15, -3.76, -3.76, -3.76, -3.76, -3.76, -3.76, -4.01, -4.01, -4.01, -4.01, -4.01, -4.3, -3.39, -3.39, -3.51, -3.51, -3.51, -4.4, -4.2, -4.0, -4.0, -3.8, -4.12, -3.91, -4.26, -4.26, -3.6, -3.4, -4.42, -6.44, -5.69, -0.0, -0.0, -0.0, 6.64, 8.8, 9.83, 9.83, 9.83, -10.0, -8.53, -6.94, -0.0, -0.0, 13.86, 13.99, 12.27, 12.65, 13.99, 15.62, 19.28, 18.78, 14.3, 9.6, -7.59, -11.18, 11.62, 11.03, 10.0, 3.39, -2.49, -4.4, -4.4, -4.4, -8.0, -8.0, -8.0, -7.51, -7.51, -7.51, -7.55, -7.55, -7.55, -6.97, -6.97, -6.97, -6.97, -6.97, -7.28, -6.63, -6.63, -6.63, -6.24, -6.2, -6.2, -5.75, -5.75, -5.75, -5.26, -5.26, -5.26, -5.26, -4.73, -4.73, -4.73, -4.15, -4.15, -4.15, -4.4, -4.4, -3.76, -3.76, -3.76, -3.76, -4.01, -4.01, -4.01, -4.01, -4.3, -4.3, -4.13, -4.13, -4.44, -4.25, -4.25, -4.4, -4.4, -4.0, -4.0, -3.8, -4.12, -3.91, -3.91, -4.26, -4.26, -4.03, -4.42, -5.93, -7.6, -0.0, -0.0, -0.0, 0.0, 0.0, 0.0, 10.28, 10.28, -0.0, -6.2, -5.2, -3.04, -0.0, 9.48, 13.86, 13.57, 13.88, 13.88, 15.19, 25.32, 20.56, 16.09, 12.07, -10.73, -10.73, -11.18, 11.18, 11.28, 3.53, -2.6, -4.4, -4.4, -4.4, -8.0, -8.0, -8.0, -7.8, -7.51, -7.51, -7.51, -7.23, -7.55, -7.27, -6.97, -6.97, -6.97, -6.97, -6.64, -6.93, -6.63, -6.63, -6.63, -6.24, -6.5, -6.5, -5.75, -5.75, -5.26, -5.26, -5.26, -5.26, -4.73, -4.73, -4.73, -4.73, -5.0, -4.4, -4.4, -4.4, -4.4, -4.4, -4.4, -3.76, -4.01, -4.01, -4.01, -4.01, -4.3, -4.3, -4.13, -4.13, -4.44, -4.25, -4.25, -4.4, -4.4, -4.0, -4.0, -4.37, -4.37, -4.71, -3.91, -3.91, -4.03, -4.03, -4.42, -5.37, -7.21, -0.0, 6.64, -0.0, -6.95, -9.39, -9.83, -10.28, -10.28, -10.28, -5.7, -6.2, -3.82, -0.0, 9.17, 12.96, 13.41, 13.86, 14.75, 25.87, 27.72, 19.67, 16.54, 12.96, -11.62, -9.2, -9.3, 0.0, 11.62, -0.0, -2.6, -2.49, -2.49, -2.49, -7.9, -7.9, -7.44, -7.44, -7.8, -7.51, -7.51, -7.51, -6.95, -6.95, -6.95, -6.97, -6.97, -6.97, -6.64, -6.64, -6.93, -6.63, -6.24, -6.24, -6.24, -6.24, -6.04, -5.75, -5.26, -5.26, -5.26, -5.26, -5.26, -4.73, -4.73, -5.0, -5.0, -5.0, -5.0, -4.4, -4.4, -4.4, -4.4, -4.68, -4.68, -4.68, -4.01, -4.01, -4.3, -4.3, -4.3, -4.13, -4.44, -4.25, -4.25, -4.07, -4.2, -4.0, -4.6, -4.37, -4.37, -4.71, -4.46, -4.46, -4.22, -4.03, -4.42, -4.87, -6.08, 0.0, 5.37, -0.0, -7.27, -9.2, -10.28, -10.28, -10.28, -10.28, -10.28, -7.59, -8.22, -0.0, -0.0, 8.85, 12.96, 13.86, 18.33, 26.37, 26.82, 18.52, 13.97, 11.6, -0.0, -2.28, -2.71, -0.0, 11.18, -0.0, -2.6, -2.49, -2.49, -2.49, -7.72, -7.72, -7.72, -7.44, -7.44, -7.44, -7.51, -7.51, -7.25, -6.95, -6.95, -7.27, -6.97, -6.97, -6.64, -6.64, -6.64, -6.64, -6.54, -6.24, -6.24, -6.24, -5.8, -6.04, -6.04, -5.54, -5.26, -5.26, -5.26, -4.73, -4.73, -5.0, -5.0, -5.0, -5.0, -5.0, -4.4, -4.4, -4.68, -4.68, -4.68, -4.68, -4.68, -4.01, -4.3, -4.3, -4.3, -4.13, -4.44, -4.44, -4.25, -4.25, -4.2, -4.83, -4.6, -4.37, -4.37, -4.71, -4.46, -4.46, -4.46, -4.03, -4.42, -4.87, -5.69, -8.05, 5.69, -0.0, -4.6, -9.6, -10.18, -10.18, -10.41, -9.97, -9.83, -9.83, -10.73, -10.4, -0.0, -0.0, 11.2, 13.01, 18.41, 24.14, 27.27, 17.35, 12.39, 7.59, 3.39, -0.0, -1.84, -0.0, 8.22, -0.0, -0.0, -2.39, -2.39, -2.39, -7.72, -7.72, -7.72, -7.44, -7.44, -7.44, -7.17, -6.92, -7.25, -7.25, -6.95, -6.95, -7.27, -7.27, -6.64, -6.64, -6.64, -6.64, -6.27, -6.54, -6.54, -6.54, -5.8, -5.8, -5.8, -5.32, -5.32, -5.54, -5.54, -5.0, -5.0, -5.0, -5.0, -5.0, -5.0, -5.0, -5.0, -4.68, -4.68, -4.68, -4.68, -4.68, -4.5, -4.5, -4.13, -4.13, -4.13, -4.13, -4.44, -4.44, -4.25, -4.25, -4.83, -4.83, -4.6, -4.96, -4.71, -4.71, -4.46, -4.46, -4.46, -4.83, -4.26, -5.15, -6.28, -7.2, 6.01, 2.69, -1.67, -3.39, -7.59, -8.93, -9.6, -8.55, -9.2, -10.28, -10.28, -11.18, -10.4, -0.0, 5.6, 12.79, 17.53, 21.01, 28.61, 24.59, 14.39, 8.93, 5.0, -0.0, -2.82, -0.0, 3.68, -0.0, -0.0, -3.25, -3.25, -3.25, -7.72, -7.72, -7.72, -7.72, -7.44, -7.21, -7.21, -6.92, -6.92, -7.25, -7.25, -6.95, -7.27, -7.27, -6.95, -6.64, -6.64, -6.64, -6.27, -6.27, -6.27, -6.54, -6.11, -5.8, -5.8, -5.8, -5.32, -5.32, -5.32, -4.8, -5.0, -5.0, -5.0, -4.8, -4.8, -4.8, -5.3, -4.68, -4.68, -4.68, -4.68, -4.5, -4.5, -4.5, -4.8, -4.8, -4.13, -4.13, -4.44, -5.14, -4.92, -5.06, -4.83, -4.83, -4.6, -4.96, -4.71, -4.71, -4.71, -4.46, -4.46, -4.83, -4.26, -4.68, -5.69, -8.06, -0.0, -0.0, -1.4, -4.6, -4.6, -6.44, -7.27, -6.95, -6.95, -9.83, -6.95, -10.28, -10.73, -8.22, 4.1, 7.69, 13.02, 19.22, 25.15, 27.72, 18.65, 11.87, 6.98, 1.84, -0.0, -0.0, -0.0, -0.0, -5.0, -3.53, -3.53, -3.53, -7.72, -7.72, -7.72, -7.72, -7.51, -7.21, -7.21, -7.21, -6.92, -7.25, -7.25, -7.25, -6.95, -7.27, -6.95, -6.95, -6.95, -6.64, -6.27, -6.27, -6.27, -6.27, -5.85, -6.11, -6.11, -6.11, -5.62, -5.32, -5.32, -5.32, -4.8, -4.8, -4.8, -4.8, -4.8, -4.8, -4.23, -4.68, -4.68, -4.68, -4.68, -4.5, -4.5, -4.8, -4.8, -4.8, -4.8, -4.8, -5.14, -5.14, -4.92, -5.06, -5.06, -4.83, -4.6, -4.6, -4.71, -4.71, -4.71, -4.71, -4.46, -4.83, -4.83, -4.94, -6.01, -7.6, -6.32, -0.0, -2.83, -4.6, -6.17, -6.17, -6.95, -7.81, -9.11, -9.39, -8.4, -7.81, -10.28, -0.0, -0.0, 4.24, 10.43, 17.43, 22.48, 24.79, 19.67, 13.99, 9.77, 6.97, -0.0, -1.44, -4.48, -8.53, -8.22, -8.22, -8.22, -8.22, -8.0, -8.0, -7.72, -7.72, -7.51, -7.51, -7.21, -7.21, -7.21, -6.92, -7.25, -7.25, -7.25, -6.65, -6.95, -6.95, -6.95, -6.95, -6.58, -6.27, -6.27, -6.27, -5.85, -5.85, -6.11, -6.11, -5.62, -5.62, -5.62, -5.62, -5.62, -4.8, -4.8, -4.8, -4.8, -4.8, -4.23, -4.5, -4.5, -4.5, -4.5, -4.5, -4.8, -4.8, -4.8, -4.8, -4.8, -4.8, -5.14, -5.14, -4.92, -4.71, -5.06, -4.83, -4.6, -4.6, -4.71, -4.71, -5.21, -5.21, -5.21, -5.1, -5.1, -5.53, -6.52, -7.28, -8.94, -4.0, -4.0, -5.59, -7.21, -7.9, -8.23, -8.91, -9.39, -9.39, -9.39, -9.83, 0.0, 0.0, -0.0, -0.0, 6.6, 14.79, 22.8, 19.6, 19.67, 15.27, 11.9, 9.48, 2.45, -1.71, -5.6, -7.78, -10.04, -8.53, -8.53, -8.53, -8.0, -8.0, -8.0, -7.72, -7.51, -7.51, -7.21, -7.21, -7.21, -7.21, -7.25, -7.25, -7.25, -6.95, -6.95, -6.65, -6.65, -6.65, -6.3, -6.58, -6.58, -6.27, -6.27, -5.85, -5.85, -5.85, -5.62, -5.62, -5.62, -5.62, -5.62, -5.62, -5.09, -5.09, -5.09, -5.09, -4.5, -4.5, -4.5, -4.5, -4.5, -4.5, -4.5, -4.8, -4.8, -4.8, -4.8, -4.8, -5.14, -5.14, -4.92, -4.71, -5.06, -4.83, -4.83, -4.6, -4.87, -5.21, -5.21, -5.21, -5.21, -5.21, -5.59, -5.53, -6.01, -7.07, -8.67, -8.0, -4.96, -6.32, -6.64, -7.9, -8.55, -9.6, -8.91, -8.8, -8.8, -6.95, 0.0, -10.73, 0.0, -0.0, -0.0, 11.06, 21.01, 0.0, 0.0, 16.09, 10.12, 6.2, -0.0, -2.06, -3.82, -5.6, -6.94, -8.53, -8.53, -8.53, -8.0, -8.0, -8.0, -8.0, -7.51, -7.51, -7.51, -7.21, -7.21, -7.21, -7.21, -7.25, -7.25, -6.95, -6.95, -6.95, -6.65, -6.65, -6.3, -6.3, -6.3, -6.58, -6.58, -6.17, -5.85, -5.85, -5.85, -5.62, -5.62, -5.62, -5.62, -5.62, -5.09, -5.09, -5.09, -5.09, -5.09, -4.5, -4.5, -4.5, -4.5, -4.5, -4.5, -4.5, -4.8, -4.8, -4.8, -4.8, -4.8, -4.92, -4.92, -4.71, -5.06, -4.83, -4.83, -4.6, -5.13, -5.21, -5.21, -5.21, -5.21, -5.21, -5.59, -6.01, -6.45, -7.37, -8.3, -8.94, -6.32, -5.36, -5.86, -6.64, -6.64, -5.2, -6.64, -6.95, -6.95, -4.4, -7.27, -10.73, -11.62, -12.96, -0.0, 0.0, 0.0, 0.0, 0.0, 0.0, 0.0, 0.0, -0.0, -0.0, -3.14, -3.96, -5.6, -8.85, -8.85, -8.85, -8.0, -8.0, -8.0, -8.0, -7.51, -7.51, -7.51, -7.21, -7.21, -7.21, -7.21, -7.25, -7.25, -6.95, -6.95, -6.95, -6.65, -6.65, -6.3, -6.3, -6.3, -6.58, -6.58, -6.17, -5.85, -5.85, -5.85, -5.62, -5.62, -5.62, -5.62, -5.62, -5.09, -5.09, -5.09, -5.09, -5.09, -4.5, -4.5, -4.5, -4.5, -4.5, -4.5, -4.5, -4.8, -4.8, -4.8, -4.8, -4.8, -4.92, -4.92, -4.71, -5.06, -4.83, -4.83, -4.6, -5.13, -5.21, -5.21, -5.21, -5.21, -5.21, -5.59, -6.01, -6.45, -7.37, -8.3, -8.94, -6.32, -5.36, -5.86, -6.64, -6.64, -5.2, -6.64, -6.95, -6.95, -4.4, -7.27, -10.73, -11.62, -12.52, -13.41, -14.3, 0.0, 0.0, 0.0, 0.0, 0.0, 0.0, 0.0, 0.0, 0.0, 0.0, 0.0, 0.0, 0.0, 0.0]}]